Observation data for Odell on 04/16/2021      Previous  Date  Next       Current Mesonet Observations  Soil Data  Daily Summary Page  Observations in Plain Language
KOD1 160500Z 06008KT 09/09 A2994 RMK A01 T00880086  RH  099%=      5-min Rain = 0
KOD1 160501Z 06007KT 09/09 A2993 RMK A01 T00890086  RH  099%=      5-min Rain = 0
KOD1 160502Z 07007KT 09/09 A2993 RMK A01 T00890086  RH  099%=      5-min Rain = 0
KOD1 160503Z 07007KT 09/09 A2993 RMK A01 T00890087  RH  099%=      5-min Rain = 0
KOD1 160504Z 06007KT 09/09 A2994 RMK A01 T00890087  RH  099%=      5-min Rain = 0
KOD1 160505Z 07007KT 09/09 A2994 RMK A01 T00890087  RH  099%=      5-min Rain = 0
KOD1 160506Z 06007KT 09/09 A2994 RMK A01 T00890087  RH  099%=      5-min Rain = 0
KOD1 160507Z 07006KT 09/09 A2993 RMK A01 T00890087  RH  099%=      5-min Rain = 0
KOD1 160508Z 06006KT 09/09 A2993 RMK A01 T00890087  RH  099%=      5-min Rain = 0
KOD1 160509Z 06008KT 09/09 A2993 RMK A01 T00890087  RH  099%=      5-min Rain = 0
KOD1 160510Z 07008KT 09/09 A2993 RMK A01 T00890087  RH  099%=      5-min Rain = 0
KOD1 160511Z 06008KT 09/09 A2993 RMK A01 T00890087  RH  099%=      5-min Rain = 0
KOD1 160512Z 06009KT 09/09 A2993 RMK A01 T00890087  RH  099%=      5-min Rain = 0
KOD1 160513Z 06007KT 09/09 A2993 RMK A01 T00890087  RH  099%=      5-min Rain = 0
KOD1 160514Z 06008KT 09/09 A2993 RMK A01 T00900088  RH  099%=      5-min Rain = 0
KOD1 160515Z 06010KT 09/09 A2993 RMK A01 T00900088  RH  099%=      5-min Rain = 0
KOD1 160516Z 06009KT 09/09 A2993 RMK A01 T00900088  RH  099%=      5-min Rain = 0
KOD1 160517Z 06007KT 09/09 A2993 RMK A01 T00900088  RH  099%=      5-min Rain = 0
KOD1 160518Z 06009KT 09/09 A2993 RMK A01 T00900088  RH  099%=      5-min Rain = 0
KOD1 160519Z 06009KT 09/09 A2993 RMK A01 T00900088  RH  099%=      5-min Rain = 0
KOD1 160520Z 06007KT 09/09 A2993 RMK A01 T00900088  RH  099%=      5-min Rain = 0
KOD1 160521Z 06009KT 09/09 A2993 RMK A01 T00900088  RH  099%=      5-min Rain = 0
KOD1 160522Z 05010KT 09/09 A2993 RMK A01 T00900088  RH  099%=      5-min Rain = 0
KOD1 160523Z 06009KT 09/09 A2993 RMK A01 T00900088  RH  099%=      5-min Rain = 0
KOD1 160524Z 06008KT 09/09 A2993 RMK A01 T00900088  RH  099%=      5-min Rain = 0
KOD1 160525Z 06011KT 09/09 A2993 RMK A01 T00900088  RH  099%=      5-min Rain = 0
KOD1 160526Z 05010KT 09/09 A2992 RMK A01 T00900088  RH  099%=      5-min Rain = 0
KOD1 160527Z 06009KT 09/09 A2992 RMK A01 T00900088  RH  099%=      5-min Rain = 0
KOD1 160528Z 05009KT 09/09 A2992 RMK A01 T00900088  RH  099%=      5-min Rain = 0
KOD1 160529Z 05009KT 09/09 A2992 RMK A01 T00900088  RH  099%=      5-min Rain = 0
KOD1 160530Z 06008KT 09/09 A2992 RMK A01 T00900087  RH  099%=      5-min Rain = 0
KOD1 160531Z 06011KT 09/09 A2992 RMK A01 T00900088  RH  099%=      5-min Rain = 0
KOD1 160532Z 05010KT 09/09 A2992 RMK A01 T00890087  RH  099%=      5-min Rain = 0
KOD1 160533Z 05009KT 09/09 A2992 RMK A01 T00890087  RH  099%=      5-min Rain = 0
KOD1 160534Z 06009KT 09/09 A2992 RMK A01 T00890087  RH  099%=      5-min Rain = 0
KOD1 160535Z 06010KT 09/09 A2992 RMK A01 T00890087  RH  099%=      5-min Rain = 0
KOD1 160536Z 06009KT 09/09 A2992 RMK A01 T00890087  RH  099%=      5-min Rain = 0
KOD1 160537Z 07008KT 09/09 A2992 RMK A01 T00890087  RH  099%=      5-min Rain = 0
KOD1 160538Z 06009KT 09/09 A2992 RMK A01 T00890087  RH  099%=      5-min Rain = 0
KOD1 160539Z 06009KT 09/09 A2992 RMK A01 T00890087  RH  099%=      5-min Rain = 0
KOD1 160540Z 06009KT 09/09 A2992 RMK A01 T00890087  RH  099%=      5-min Rain = 0
KOD1 160541Z 07009KT 09/09 A2991 RMK A01 T00890087  RH  099%=      5-min Rain = 0
KOD1 160542Z 07009KT 09/09 A2991 RMK A01 T00880086  RH  099%=      5-min Rain = 0
KOD1 160543Z 07008KT 09/09 A2991 RMK A01 T00890087  RH  099%=      5-min Rain = 0
KOD1 160544Z 07008KT 09/09 A2991 RMK A01 T00890087  RH  099%=      5-min Rain = 0
KOD1 160545Z 07006KT 09/09 A2991 RMK A01 T00890087  RH  099%=      5-min Rain = 0
KOD1 160546Z 07007KT 09/09 A2991 RMK A01 T00890087  RH  099%=      5-min Rain = 0
KOD1 160547Z 07008KT 09/09 A2991 RMK A01 T00890087  RH  099%=      5-min Rain = 0
KOD1 160548Z 07009KT 09/09 A2991 RMK A01 T00890087  RH  099%=      5-min Rain = 0
KOD1 160549Z 06009KT 09/09 A2991 RMK A01 T00890087  RH  099%=      5-min Rain = 0
KOD1 160550Z 07009KT 09/09 A2991 RMK A01 T00890087  RH  099%=      5-min Rain = 0
KOD1 160551Z 07008KT 09/09 A2991 RMK A01 T00890087  RH  099%=      5-min Rain = 0
KOD1 160552Z 07008KT 09/09 A2991 RMK A01 T00890087  RH  099%=      5-min Rain = 0
KOD1 160553Z 07008KT 09/09 A2991 RMK A01 T00890087  RH  099%=      5-min Rain = 0
KOD1 160554Z 07010KT 09/09 A2991 RMK A01 T00890087  RH  099%=      5-min Rain = 0
KOD1 160555Z 07007KT 09/09 A2991 RMK A01 T00890087  RH  099%=      5-min Rain = 0
KOD1 160556Z 07008KT 09/09 A2991 RMK A01 T00890087  RH  099%=      5-min Rain = 0
KOD1 160557Z 07010KT 09/09 A2991 RMK A01 T00890087  RH  099%=      5-min Rain = 0
KOD1 160558Z 07009KT 09/09 A2991 RMK A01 T00890087  RH  099%=      5-min Rain = 0
KOD1 160559Z 07008KT 09/09 A2991 RMK A01 T00890087  RH  099%=      5-min Rain = 0
KOD1 160600Z 07009KT 09/09 A2991 RMK A01 T00890087  RH  099%=      5-min Rain = 0
KOD1 160601Z 07010KT 09/09 A299 RMK A01 T00890087  RH  099%=      5-min Rain = 0
KOD1 160602Z 07009KT 09/09 A299 RMK A01 T00890087  RH  099%=      5-min Rain = 0
KOD1 160603Z 07009KT 09/09 A299 RMK A01 T00890087  RH  099%=      5-min Rain = 0
KOD1 160604Z 08010KT 09/09 A2991 RMK A01 T00890087  RH  099%=      5-min Rain = 0
KOD1 160605Z 07009KT 09/09 A299 RMK A01 T00900088  RH  099%=      5-min Rain = 0
KOD1 160606Z 08010KT 09/09 A299 RMK A01 T00900088  RH  099%=      5-min Rain = 0
KOD1 160607Z 08009KT 09/09 A299 RMK A01 T00900088  RH  099%=      5-min Rain = 0
KOD1 160608Z 08011KT 09/09 A299 RMK A01 T00900088  RH  099%=      5-min Rain = 0
KOD1 160609Z 08010G15KT 09/09 A299 RMK A01 T00900088  RH  099%=      5-min Rain = 0
KOD1 160610Z 08008KT 09/09 A299 RMK A01 T00900088  RH  099%=      5-min Rain = 0
KOD1 160611Z 07009KT 09/09 A299 RMK A01 T00900088  RH  099%=      5-min Rain = 0
KOD1 160612Z 07009KT 09/09 A299 RMK A01 T00900088  RH  099%=      5-min Rain = 0
KOD1 160613Z 08008KT 09/09 A299 RMK A01 T00900088  RH  099%=      5-min Rain = 0
KOD1 160614Z 08011KT 09/09 A299 RMK A01 T00900088  RH  099%=      5-min Rain = 0
KOD1 160615Z 08009KT 09/09 A299 RMK A01 T00900088  RH  099%=      5-min Rain = 0
KOD1 160616Z 08011KT 09/09 A299 RMK A01 T00900089  RH  099%=      5-min Rain = 0
KOD1 160617Z 08010KT 09/09 A299 RMK A01 T00900089  RH  099%=      5-min Rain = 0
KOD1 160618Z 08009KT 09/09 A2991 RMK A01 T00900089  RH  099%=      5-min Rain = 0
KOD1 160619Z 08010KT 09/09 A2991 RMK A01 T00900089  RH  099%=      5-min Rain = 0
KOD1 160620Z 08009KT 09/09 A2991 RMK A01 T00900089  RH  099%=      5-min Rain = 0
KOD1 160621Z 08008KT 09/09 A299 RMK A01 T00900088  RH  099%=      5-min Rain = 0
KOD1 160622Z 07009KT 09/09 A299 RMK A01 T00900089  RH  099%=      5-min Rain = 0
KOD1 160623Z 07008KT 09/09 A299 RMK A01 T00900089  RH  099%=      5-min Rain = 0
KOD1 160624Z 07007KT 09/09 A299 RMK A01 T00900089  RH  099%=      5-min Rain = 0
KOD1 160625Z 07008KT 09/09 A299 RMK A01 T00900088  RH  099%=      5-min Rain = 0
KOD1 160626Z 07006KT 09/09 A299 RMK A01 T00900089  RH  099%=      5-min Rain = 0
KOD1 160627Z 08006KT 09/09 A299 RMK A01 T00900088  RH  099%=      5-min Rain = 0
KOD1 160628Z 07005KT 09/09 A299 RMK A01 T00900089  RH  099%=      5-min Rain = 0
KOD1 160629Z 07005KT 09/09 A299 RMK A01 T00900088  RH  099%=      5-min Rain = 0
KOD1 160630Z 08006KT 09/09 A299 RMK A01 T00910089  RH  099%=      5-min Rain = 0
KOD1 160631Z 07006KT 09/09 A299 RMK A01 T00910089  RH  099%=      5-min Rain = 0
KOD1 160632Z 08006KT 09/09 A299 RMK A01 T00910089  RH  099%=      5-min Rain = 0
KOD1 160633Z 08007KT 09/09 A299 RMK A01 T00910089  RH  099%=      5-min Rain = 0
KOD1 160634Z 08007KT 09/09 A299 RMK A01 T00910089  RH  099%=      5-min Rain = 0
KOD1 160635Z 08009KT 09/09 A299 RMK A01 T00910089  RH  099%=      5-min Rain = 0
KOD1 160636Z 08008KT 09/09 A299 RMK A01 T00910089  RH  099%=      5-min Rain = 0
KOD1 160637Z 08009KT 09/09 A299 RMK A01 T00910089  RH  099%=      5-min Rain = 0
KOD1 160638Z 08008KT 09/09 A299 RMK A01 T00910089  RH  099%=      5-min Rain = 0
KOD1 160639Z 07007KT 09/09 A299 RMK A01 T00910089  RH  099%=      5-min Rain = 0
KOD1 160640Z 08007KT 09/09 A299 RMK A01 T00910089  RH  099%=      5-min Rain = 0
KOD1 160641Z 08010KT 09/09 A299 RMK A01 T00910090  RH  099%=      5-min Rain = 0
KOD1 160642Z 07008KT 09/09 A299 RMK A01 T00910090  RH  099%=      5-min Rain = 0
KOD1 160643Z 08008KT 09/09 A299 RMK A01 T00920090  RH  099%=      5-min Rain = 0
KOD1 160644Z 09008KT 09/09 A299 RMK A01 T00910089  RH  099%=      5-min Rain = 0
KOD1 160645Z 08007KT 09/09 A299 RMK A01 T00920090  RH  099%=      5-min Rain = 0
KOD1 160646Z 08008KT 09/09 A2989 RMK A01 T00920090  RH  099%=      5-min Rain = 0
KOD1 160647Z 08006KT 09/09 A2989 RMK A01 T00920090  RH  099%=      5-min Rain = 0
KOD1 160648Z 08006KT 09/09 A2989 RMK A01 T00920090  RH  099%=      5-min Rain = 0
KOD1 160649Z 08007KT 09/09 A2989 RMK A01 T00920090  RH  099%=      5-min Rain = 0
KOD1 160650Z 08007KT 09/09 A2989 RMK A01 T00920090  RH  099%=      5-min Rain = 0
KOD1 160651Z 08008KT 09/09 A2989 RMK A01 T00920090  RH  099%=      5-min Rain = 0
KOD1 160652Z 08008KT 09/09 A2989 RMK A01 T00920090  RH  099%=      5-min Rain = 0
KOD1 160653Z 09007KT 09/09 A2989 RMK A01 T00920090  RH  099%=      5-min Rain = 0
KOD1 160654Z 09007KT 09/09 A2989 RMK A01 T00920090  RH  099%=      5-min Rain = 0
KOD1 160655Z 07006KT 09/09 A2989 RMK A01 T00920091  RH  099%=      5-min Rain = 0
KOD1 160656Z 08007KT 09/09 A2989 RMK A01 T00920091  RH  099%=      5-min Rain = 0
KOD1 160657Z 07005KT 09/09 A2989 RMK A01 T00920091  RH  099%=      5-min Rain = 0
KOD1 160658Z 07005KT 09/09 A2989 RMK A01 T00920091  RH  099%=      5-min Rain = 0
KOD1 160659Z 07005KT 09/09 A2989 RMK A01 T00920091  RH  099%=      5-min Rain = 0
KOD1 160700Z 08006KT 09/09 A2989 RMK A01 T00920091  RH  099%=      5-min Rain = 0
KOD1 160701Z 07005KT 09/09 A2989 RMK A01 T00920091  RH  099%=      5-min Rain = 0
KOD1 160702Z 08006KT 09/09 A2989 RMK A01 T00920091  RH  099%=      5-min Rain = 0
KOD1 160703Z 07006KT 09/09 A2989 RMK A01 T00920091  RH  099%=      5-min Rain = 0
KOD1 160704Z 07007KT 09/09 A2989 RMK A01 T00920091  RH  099%=      5-min Rain = 0
KOD1 160705Z 08007KT 09/09 A2989 RMK A01 T00920091  RH  099%=      5-min Rain = 0
KOD1 160706Z 07005KT 09/09 A2989 RMK A01 T00920091  RH  099%=      5-min Rain = 0
KOD1 160707Z 08005KT 09/09 A2989 RMK A01 T00920091  RH  099%=      5-min Rain = 0
KOD1 160708Z 08007KT 09/09 A2989 RMK A01 T00920091  RH  099%=      5-min Rain = 0
KOD1 160709Z 08007KT 09/09 A2989 RMK A01 T00920091  RH  099%=      5-min Rain = 0
KOD1 160710Z 08007KT 09/09 A2989 RMK A01 T00920091  RH  099%=      5-min Rain = 0
KOD1 160711Z 07006KT 09/09 A2989 RMK A01 T00920091  RH  099%=      5-min Rain = 0
KOD1 160712Z 08005KT 09/09 A2989 RMK A01 T00920091  RH  099%=      5-min Rain = 0
KOD1 160713Z 08006KT 09/09 A2989 RMK A01 T00920091  RH  099%=      5-min Rain = 0
KOD1 160714Z 08006KT 09/09 A2989 RMK A01 T00930091  RH  099%=      5-min Rain = 0
KOD1 160715Z 08007KT 09/09 A2989 RMK A01 T00930091  RH  099%=      5-min Rain = 0
KOD1 160716Z 08007KT 09/09 A2989 RMK A01 T00930091  RH  099%=      5-min Rain = 0
KOD1 160717Z 09007KT 09/09 A2989 RMK A01 T00930091  RH  099%=      5-min Rain = 0
KOD1 160718Z 08007KT 09/09 A2989 RMK A01 T00930091  RH  099%=      5-min Rain = 0
KOD1 160719Z 08005KT 09/09 A2989 RMK A01 T00930091  RH  099%=      5-min Rain = 0
KOD1 160720Z 08006KT 09/09 A2989 RMK A01 T00930091  RH  099%=      5-min Rain = 0
KOD1 160721Z 08006KT 09/09 A2989 RMK A01 T00930091  RH  099%=      5-min Rain = 0
KOD1 160722Z 09005KT 09/09 A2989 RMK A01 T00930092  RH  099%=      5-min Rain = 0
KOD1 160723Z 09005KT 09/09 A2989 RMK A01 T00930092  RH  099%=      5-min Rain = 0
KOD1 160724Z 08005KT 09/09 A2988 RMK A01 T00930092  RH  099%=      5-min Rain = 0
KOD1 160725Z 08006KT 09/09 A2988 RMK A01 T00930091  RH  099%=      5-min Rain = 0
KOD1 160726Z 08005KT 09/09 A2988 RMK A01 T00930091  RH  099%=      5-min Rain = 0
KOD1 160727Z 09006KT 09/09 A2988 RMK A01 T00930091  RH  099%=      5-min Rain = 0
KOD1 160728Z 09005KT 09/09 A2988 RMK A01 T00930091  RH  099%=      5-min Rain = 0
KOD1 160729Z 08004KT 09/09 A2988 RMK A01 T00930092  RH  099%=      5-min Rain = 0
KOD1 160730Z 08006KT 09/09 A2988 RMK A01 T00930092  RH  099%=      5-min Rain = 0.01
KOD1 160731Z 08006KT 09/09 A2988 RMK A01 T00930092  RH  099%=      5-min Rain = 0
KOD1 160732Z 08005KT 09/09 A2988 RMK A01 T00930092  RH  099%=      5-min Rain = 0
KOD1 160733Z 08005KT 09/09 A2988 RMK A01 T00930092  RH  099%=      5-min Rain = 0
KOD1 160734Z 08006KT 09/09 A2988 RMK A01 T00930092  RH  099%=      5-min Rain = 0
KOD1 160735Z 08006KT 09/09 A2988 RMK A01 T00930092  RH  099%=      5-min Rain = 0
KOD1 160736Z 08005KT 09/09 A2988 RMK A01 T00930092  RH  099%=      5-min Rain = 0
KOD1 160737Z 08007KT 09/09 A2988 RMK A01 T00930092  RH  099%=      5-min Rain = 0
KOD1 160738Z 09005KT 09/09 A2988 RMK A01 T00930092  RH  099%=      5-min Rain = 0
KOD1 160739Z 08006KT 09/09 A2988 RMK A01 T00940092  RH  099%=      5-min Rain = 0
KOD1 160740Z 08006KT 09/09 A2988 RMK A01 T00940092  RH  099%=      5-min Rain = 0
KOD1 160741Z 09006KT 09/09 A2988 RMK A01 T00940092  RH  099%=      5-min Rain = 0
KOD1 160742Z 08006KT 09/09 A2988 RMK A01 T00940092  RH  099%=      5-min Rain = 0
KOD1 160743Z 08007KT 09/09 A2988 RMK A01 T00940092  RH  099%=      5-min Rain = 0
KOD1 160744Z 08007KT 09/09 A2988 RMK A01 T00940092  RH  099%=      5-min Rain = 0
KOD1 160745Z 09006KT 09/09 A2988 RMK A01 T00940092  RH  099%=      5-min Rain = 0
KOD1 160746Z 08006KT 09/09 A2988 RMK A01 T00940092  RH  099%=      5-min Rain = 0
KOD1 160747Z 08006KT 09/09 A2988 RMK A01 T00940092  RH  099%=      5-min Rain = 0
KOD1 160748Z 08006KT 09/09 A2988 RMK A01 T00940092  RH  099%=      5-min Rain = 0
KOD1 160749Z 08005KT 09/09 A2988 RMK A01 T00940092  RH  099%=      5-min Rain = 0
KOD1 160750Z 08006KT 09/09 A2988 RMK A01 T00940092  RH  099%=      5-min Rain = 0
KOD1 160751Z 08006KT 09/09 A2988 RMK A01 T00940092  RH  099%=      5-min Rain = 0
KOD1 160752Z 07005KT 09/09 A2988 RMK A01 T00940092  RH  099%=      5-min Rain = 0
KOD1 160753Z 08005KT 09/09 A2988 RMK A01 T00940092  RH  099%=      5-min Rain = 0
KOD1 160754Z 09006KT 09/09 A2988 RMK A01 T00940092  RH  099%=      5-min Rain = 0
KOD1 160755Z 08006KT 09/09 A2988 RMK A01 T00940092  RH  099%=      5-min Rain = 0
KOD1 160756Z 08005KT 09/09 A2988 RMK A01 T00940092  RH  099%=      5-min Rain = 0
KOD1 160757Z 08005KT 09/09 A2988 RMK A01 T00940092  RH  099%=      5-min Rain = 0
KOD1 160758Z 08004KT 09/09 A2988 RMK A01 T00940093  RH  099%=      5-min Rain = 0
KOD1 160759Z 08005KT 09/09 A2988 RMK A01 T00940093  RH  099%=      5-min Rain = 0
KOD1 160800Z 08004KT 09/09 A2988 RMK A01 T00940093  RH  099%=      5-min Rain = 0
KOD1 160801Z 08004KT 09/09 A2988 RMK A01 T00940093  RH  099%=      5-min Rain = 0
KOD1 160802Z 08004KT 09/09 A2988 RMK A01 T00940093  RH  099%=      5-min Rain = 0
KOD1 160803Z 08003KT 09/09 A2988 RMK A01 T00940093  RH  099%=      5-min Rain = 0
KOD1 160804Z 08006KT 09/09 A2988 RMK A01 T00940093  RH  099%=      5-min Rain = 0
KOD1 160805Z 07006KT 09/09 A2988 RMK A01 T00940093  RH  099%=      5-min Rain = 0
KOD1 160806Z 09006KT 09/09 A2988 RMK A01 T00940093  RH  099%=      5-min Rain = 0
KOD1 160807Z 07003KT 09/09 A2988 RMK A01 T00940093  RH  099%=      5-min Rain = 0
KOD1 160808Z 07005KT 09/09 A2987 RMK A01 T00940093  RH  099%=      5-min Rain = 0
KOD1 160809Z 08004KT 09/09 A2987 RMK A01 T00940093  RH  099%=      5-min Rain = 0
KOD1 160810Z 08005KT 09/09 A2987 RMK A01 T00940093  RH  099%=      5-min Rain = 0
KOD1 160811Z 08005KT 09/09 A2987 RMK A01 T00940093  RH  099%=      5-min Rain = 0
KOD1 160812Z 07003KT 09/09 A2987 RMK A01 T00940092  RH  099%=      5-min Rain = 0
KOD1 160813Z 06003KT 09/09 A2987 RMK A01 T00940092  RH  099%=      5-min Rain = 0
KOD1 160814Z 06004KT 09/09 A2987 RMK A01 T00940092  RH  099%=      5-min Rain = 0
KOD1 160815Z 06005KT 09/09 A2987 RMK A01 T00940092  RH  099%=      5-min Rain = 0.01
KOD1 160816Z 06004KT 09/09 A2987 RMK A01 T00940092  RH  099%=      5-min Rain = 0
KOD1 160817Z 06004KT 09/09 A2987 RMK A01 T00940092  RH  099%=      5-min Rain = 0
KOD1 160818Z 06006KT 09/09 A2987 RMK A01 T00940092  RH  099%=      5-min Rain = 0
KOD1 160819Z 06005KT 09/09 A2987 RMK A01 T00940092  RH  099%=      5-min Rain = 0
KOD1 160820Z 06004KT 09/09 A2987 RMK A01 T00940092  RH  099%=      5-min Rain = 0
KOD1 160821Z 07004KT 09/09 A2987 RMK A01 T00940092  RH  099%=      5-min Rain = 0
KOD1 160822Z 06004KT 09/09 A2987 RMK A01 T00940092  RH  099%=      5-min Rain = 0
KOD1 160823Z 06004KT 09/09 A2987 RMK A01 T00940092  RH  099%=      5-min Rain = 0
KOD1 160824Z 06005KT 09/09 A2987 RMK A01 T00940092  RH  099%=      5-min Rain = 0
KOD1 160825Z 06005KT 09/09 A2987 RMK A01 T00940092  RH  099%=      5-min Rain = 0
KOD1 160826Z 06006KT 09/09 A2987 RMK A01 T00940092  RH  099%=      5-min Rain = 0
KOD1 160827Z 06006KT 09/09 A2987 RMK A01 T00940092  RH  099%=      5-min Rain = 0
KOD1 160828Z 06006KT 09/09 A2987 RMK A01 T00940092  RH  099%=      5-min Rain = 0
KOD1 160829Z 06006KT 09/09 A2987 RMK A01 T00940092  RH  099%=      5-min Rain = 0
KOD1 160830Z 06006KT 09/09 A2986 RMK A01 T00940092  RH  099%=      5-min Rain = 0
KOD1 160831Z 06006KT 09/09 A2986 RMK A01 T00940092  RH  099%=      5-min Rain = 0
KOD1 160832Z 06006KT 09/09 A2986 RMK A01 T00940092  RH  099%=      5-min Rain = 0
KOD1 160833Z 06006KT 09/09 A2986 RMK A01 T00940093  RH  099%=      5-min Rain = 0
KOD1 160834Z 06006KT 09/09 A2986 RMK A01 T00940093  RH  099%=      5-min Rain = 0
KOD1 160835Z 07007KT 09/09 A2986 RMK A01 T00940093  RH  099%=      5-min Rain = 0
KOD1 160836Z 06006KT 09/09 A2986 RMK A01 T00940093  RH  099%=      5-min Rain = 0
KOD1 160837Z 06005KT 09/09 A2986 RMK A01 T00940093  RH  099%=      5-min Rain = 0
KOD1 160838Z 07005KT 09/09 A2986 RMK A01 T00940093  RH  099%=      5-min Rain = 0
KOD1 160839Z 07005KT 09/09 A2986 RMK A01 T00940093  RH  099%=      5-min Rain = 0
KOD1 160840Z 06006KT 09/09 A2986 RMK A01 T00940093  RH  099%=      5-min Rain = 0
KOD1 160841Z 06005KT 09/09 A2986 RMK A01 T00940093  RH  099%=      5-min Rain = 0
KOD1 160842Z 06006KT 09/09 A2986 RMK A01 T00940093  RH  099%=      5-min Rain = 0
KOD1 160843Z 07005KT 09/09 A2986 RMK A01 T00940093  RH  099%=      5-min Rain = 0
KOD1 160844Z 06005KT 09/09 A2986 RMK A01 T00940093  RH  099%=      5-min Rain = 0
KOD1 160845Z 06005KT 09/09 A2986 RMK A01 T00940093  RH  099%=      5-min Rain = 0
KOD1 160846Z 06005KT 09/09 A2986 RMK A01 T00940093  RH  099%=      5-min Rain = 0
KOD1 160847Z 06006KT 09/09 A2986 RMK A01 T00940093  RH  099%=      5-min Rain = 0
KOD1 160848Z 06006KT 09/09 A2986 RMK A01 T00940093  RH  099%=      5-min Rain = 0
KOD1 160849Z 06007KT 09/09 A2986 RMK A01 T00940093  RH  099%=      5-min Rain = 0
KOD1 160850Z 06005KT 09/09 A2986 RMK A01 T00940093  RH  099%=      5-min Rain = 0
KOD1 160851Z 06005KT 10/09 A2986 RMK A01 T00950094  RH  099%=      5-min Rain = 0
KOD1 160852Z 06006KT 10/09 A2986 RMK A01 T00950094  RH  099%=      5-min Rain = 0
KOD1 160853Z 05007KT 10/09 A2986 RMK A01 T00950094  RH  099%=      5-min Rain = 0
KOD1 160854Z 05006KT 10/09 A2986 RMK A01 T00950094  RH  099%=      5-min Rain = 0
KOD1 160855Z 05006KT 10/09 A2986 RMK A01 T00950094  RH  099%=      5-min Rain = 0
KOD1 160856Z 05007KT 10/09 A2986 RMK A01 T00950094  RH  099%=      5-min Rain = 0
KOD1 160857Z 05006KT 10/09 A2986 RMK A01 T00950094  RH  099%=      5-min Rain = 0
KOD1 160858Z 05007KT 10/09 A2986 RMK A01 T00960094  RH  099%=      5-min Rain = 0
KOD1 160859Z 05006KT 10/09 A2986 RMK A01 T00960094  RH  099%=      5-min Rain = 0
KOD1 160900Z 04006KT 10/09 A2986 RMK A01 T00950094  RH  099%=      5-min Rain = 0
KOD1 160901Z 05006KT 10/09 A2986 RMK A01 T00950094  RH  099%=      5-min Rain = 0
KOD1 160902Z 04006KT 10/09 A2986 RMK A01 T00960094  RH  099%=      5-min Rain = 0
KOD1 160903Z 04006KT 10/09 A2986 RMK A01 T00960094  RH  099%=      5-min Rain = 0
KOD1 160904Z 05006KT 10/09 A2987 RMK A01 T00960094  RH  099%=      5-min Rain = 0
KOD1 160905Z 04005KT 10/09 A2987 RMK A01 T00960094  RH  099%=      5-min Rain = 0
KOD1 160906Z 04006KT 10/09 A2987 RMK A01 T00960094  RH  099%=      5-min Rain = 0
KOD1 160907Z 03006KT 10/09 A2987 RMK A01 T00960094  RH  099%=      5-min Rain = 0
KOD1 160908Z 03007KT 10/09 A2987 RMK A01 T00960094  RH  099%=      5-min Rain = 0
KOD1 160909Z 03006KT 10/10 A2987 RMK A01 T00960095  RH  099%=      5-min Rain = 0
KOD1 160910Z 03006KT 10/10 A2987 RMK A01 T00960095  RH  099%=      5-min Rain = 0
KOD1 160911Z 02007KT 10/10 A2987 RMK A01 T00960095  RH  099%=      5-min Rain = 0
KOD1 160912Z 03006KT 10/10 A2987 RMK A01 T00960095  RH  099%=      5-min Rain = 0.01
KOD1 160913Z 03006KT 10/10 A2987 RMK A01 T00960095  RH  099%=      5-min Rain = 0
KOD1 160914Z 02005KT 10/10 A2987 RMK A01 T00960095  RH  099%=      5-min Rain = 0
KOD1 160915Z 02005KT 10/10 A2987 RMK A01 T00960095  RH  099%=      5-min Rain = 0
KOD1 160916Z 01005KT 10/10 A2987 RMK A01 T00960095  RH  099%=      5-min Rain = 0
KOD1 160917Z 01006KT 10/10 A2987 RMK A01 T00960095  RH  099%=      5-min Rain = 0
KOD1 160918Z 01006KT 10/10 A2987 RMK A01 T00960095  RH  099%=      5-min Rain = 0
KOD1 160919Z 02006KT 10/10 A2987 RMK A01 T00960095  RH  099%=      5-min Rain = 0
KOD1 160920Z 02007KT 10/10 A2987 RMK A01 T00960095  RH  099%=      5-min Rain = 0
KOD1 160921Z 02007KT 10/10 A2988 RMK A01 T00960095  RH  099%=      5-min Rain = 0
KOD1 160922Z 01006KT 10/10 A2988 RMK A01 T00960095  RH  099%=      5-min Rain = 0
KOD1 160923Z 01006KT 10/10 A2988 RMK A01 T00960095  RH  099%=      5-min Rain = 0
KOD1 160924Z 01007KT 10/10 A2988 RMK A01 T00960095  RH  099%=      5-min Rain = 0
KOD1 160925Z 01006KT 10/10 A2988 RMK A01 T00960095  RH  099%=      5-min Rain = 0
KOD1 160926Z 00005KT 10/10 A2988 RMK A01 T00960095  RH  099%=      5-min Rain = 0
KOD1 160927Z 01005KT 10/10 A2988 RMK A01 T00960095  RH  099%=      5-min Rain = 0
KOD1 160928Z 01006KT 10/10 A2989 RMK A01 T00960095  RH  099%=      5-min Rain = 0
KOD1 160929Z 00005KT 10/10 A2989 RMK A01 T00960095  RH  099%=      5-min Rain = 0
KOD1 160930Z 35007KT 10/10 A2989 RMK A01 T00960095  RH  099%=      5-min Rain = 0
KOD1 160931Z 35005KT 10/10 A2989 RMK A01 T00960095  RH  099%=      5-min Rain = 0.01
KOD1 160932Z 35006KT 10/10 A2989 RMK A01 T00960095  RH  099%=      5-min Rain = 0
KOD1 160933Z 35006KT 10/10 A2989 RMK A01 T00960095  RH  099%=      5-min Rain = 0
KOD1 160934Z 35005KT 10/10 A2989 RMK A01 T00960095  RH  099%=      5-min Rain = 0
KOD1 160935Z 36007KT 10/10 A2989 RMK A01 T00960095  RH  099%=      5-min Rain = 0
KOD1 160936Z 01007KT 10/10 A2989 RMK A01 T00960095  RH  099%=      5-min Rain = 0
KOD1 160937Z 01007KT 10/10 A2989 RMK A01 T00960095  RH  099%=      5-min Rain = 0
KOD1 160938Z 00007KT 10/10 A2989 RMK A01 T00960095  RH  099%=      5-min Rain = 0
KOD1 160939Z 35006KT 10/10 A2989 RMK A01 T00960095  RH  099%=      5-min Rain = 0
KOD1 160940Z 34006KT 10/10 A2989 RMK A01 T00960095  RH  099%=      5-min Rain = 0
KOD1 160941Z 34006KT 10/10 A299 RMK A01 T00960095  RH  099%=      5-min Rain = 0
KOD1 160942Z 34006KT 10/10 A2989 RMK A01 T00960095  RH  099%=      5-min Rain = 0
KOD1 160943Z 35006KT 10/10 A2989 RMK A01 T00960095  RH  099%=      5-min Rain = 0.01
KOD1 160944Z 35005KT 10/10 A2989 RMK A01 T00960095  RH  099%=      5-min Rain = 0
KOD1 160945Z 34006KT 10/10 A2989 RMK A01 T00960095  RH  099%=      5-min Rain = 0
KOD1 160946Z 35006KT 10/10 A2989 RMK A01 T00960095  RH  099%=      5-min Rain = 0
KOD1 160947Z 35006KT 10/10 A2989 RMK A01 T00960095  RH  099%=      5-min Rain = 0
KOD1 160948Z 35007KT 10/10 A2989 RMK A01 T00960095  RH  099%=      5-min Rain = 0
KOD1 160949Z 35006KT 10/10 A2989 RMK A01 T00960095  RH  099%=      5-min Rain = 0.01
KOD1 160950Z 34006KT 10/10 A2989 RMK A01 T00960095  RH  099%=      5-min Rain = 0
KOD1 160951Z 34006KT 10/10 A2989 RMK A01 T00960095  RH  099%=      5-min Rain = 0
KOD1 160952Z 35005KT 10/10 A2989 RMK A01 T00960095  RH  099%=      5-min Rain = 0
KOD1 160953Z 35006KT 10/10 A2989 RMK A01 T00960095  RH  099%=      5-min Rain = 0
KOD1 160954Z 36006KT 10/10 A2989 RMK A01 T00960095  RH  099%=      5-min Rain = 0
KOD1 160955Z 00007KT 10/10 A2988 RMK A01 T00960095  RH  099%=      5-min Rain = 0
KOD1 160956Z 01007KT 10/10 A2988 RMK A01 T00960095  RH  099%=      5-min Rain = 0
KOD1 160957Z 00008KT 10/10 A2988 RMK A01 T00960095  RH  099%=      5-min Rain = 0
KOD1 160958Z 00008KT 10/10 A2988 RMK A01 T00960095  RH  099%=      5-min Rain = 0.01
KOD1 160959Z 00007KT 10/10 A2988 RMK A01 T00960095  RH  099%=      5-min Rain = 0
KOD1 161000Z 36008KT 10/10 A2988 RMK A01 T00960095  RH  099%=      5-min Rain = 0
KOD1 161001Z 00008KT 10/10 A2988 RMK A01 T00960095  RH  099%=      5-min Rain = 0
KOD1 161002Z 36008KT 10/10 A2988 RMK A01 T00960095  RH  099%=      5-min Rain = 0
KOD1 161003Z 36008KT 10/10 A2988 RMK A01 T00960095  RH  099%=      5-min Rain = 0
KOD1 161004Z 36009KT 10/10 A2988 RMK A01 T00960095  RH  099%=      5-min Rain = 0
KOD1 161005Z 36008KT 10/10 A2988 RMK A01 T00960095  RH  099%=      5-min Rain = 0
KOD1 161006Z 36008KT 10/10 A2988 RMK A01 T00960095  RH  100%=      5-min Rain = 0
KOD1 161007Z 36008KT 10/10 A2988 RMK A01 T00960095  RH  099%=      5-min Rain = 0
KOD1 161008Z 00008KT 10/10 A2988 RMK A01 T00960095  RH  099%=      5-min Rain = 0
KOD1 161009Z 01008KT 10/10 A2987 RMK A01 T00960095  RH  099%=      5-min Rain = 0
KOD1 161010Z 01008KT 10/10 A2987 RMK A01 T00960095  RH  100%=      5-min Rain = 0
KOD1 161011Z 01007KT 10/10 A2987 RMK A01 T00960095  RH  099%=      5-min Rain = 0
KOD1 161012Z 00007KT 10/10 A2987 RMK A01 T00960095  RH  099%=      5-min Rain = 0
KOD1 161013Z 00006KT 10/10 A2987 RMK A01 T00960095  RH  099%=      5-min Rain = 0
KOD1 161014Z 00006KT 10/10 A2987 RMK A01 T00960095  RH  100%=      5-min Rain = 0
KOD1 161015Z 01007KT 10/10 A2987 RMK A01 T00960096  RH  100%=      5-min Rain = 0
KOD1 161016Z 00006KT 10/10 A2987 RMK A01 T00960096  RH  099%=      5-min Rain = 0
KOD1 161017Z 35007KT 10/10 A2987 RMK A01 T00960096  RH  100%=      5-min Rain = 0
KOD1 161018Z 36007KT 10/10 A2987 RMK A01 T00960096  RH  100%=      5-min Rain = 0
KOD1 161019Z 36007KT 10/10 A2987 RMK A01 T00960096  RH  100%=      5-min Rain = 0
KOD1 161020Z 00006KT 10/10 A2987 RMK A01 T00960096  RH  100%=      5-min Rain = 0
KOD1 161021Z 00006KT 10/10 A2988 RMK A01 T00960096  RH  100%=      5-min Rain = 0
KOD1 161022Z 01007KT 10/10 A2988 RMK A01 T00960096  RH  099%=      5-min Rain = 0
KOD1 161023Z 36005KT 10/10 A2988 RMK A01 T00960095  RH  099%=      5-min Rain = 0
KOD1 161024Z 35006KT 10/10 A2988 RMK A01 T00960095  RH  099%=      5-min Rain = 0
KOD1 161025Z 35007KT 10/10 A2988 RMK A01 T00960096  RH  099%=      5-min Rain = 0
KOD1 161026Z 35006KT 10/10 A2988 RMK A01 T00960096  RH  099%=      5-min Rain = 0
KOD1 161027Z 35006KT 10/10 A2988 RMK A01 T00960096  RH  099%=      5-min Rain = 0
KOD1 161028Z 36006KT 10/10 A2987 RMK A01 T00960096  RH  099%=      5-min Rain = 0.01
KOD1 161029Z 00006KT 10/10 A2987 RMK A01 T00960096  RH  099%=      5-min Rain = 0
KOD1 161030Z 35007KT 10/10 A2987 RMK A01 T00960096  RH  100%=      5-min Rain = 0.01
KOD1 161031Z 35009KT 10/10 A2987 RMK A01 T00960095  RH  099%=      5-min Rain = 0
KOD1 161032Z 35008KT 10/10 A2987 RMK A01 T00950095  RH  099%=      5-min Rain = 0
KOD1 161033Z 34007KT 10/09 A2987 RMK A01 T00950094  RH  099%=      5-min Rain = 0
KOD1 161034Z 35007KT 10/09 A2987 RMK A01 T00950094  RH  100%=      5-min Rain = 0
KOD1 161035Z 35008KT 09/09 A2987 RMK A01 T00940094  RH  100%=      5-min Rain = 0
KOD1 161036Z 34008KT 09/09 A2987 RMK A01 T00940093  RH  100%=      5-min Rain = 0
KOD1 161037Z 35007KT 09/09 A2987 RMK A01 T00940093  RH  099%=      5-min Rain = 0
KOD1 161038Z 35008KT 09/09 A2987 RMK A01 T00930093  RH  100%=      5-min Rain = 0
KOD1 161039Z 34009KT 09/09 A2987 RMK A01 T00930092  RH  099%=      5-min Rain = 0
KOD1 161040Z 34008KT 09/09 A2987 RMK A01 T00920091  RH  099%=      5-min Rain = 0
KOD1 161041Z 35007KT 09/09 A2987 RMK A01 T00920091  RH  099%=      5-min Rain = 0
KOD1 161042Z 35008KT 09/09 A2987 RMK A01 T00920092  RH  099%=      5-min Rain = 0
KOD1 161043Z 35007KT 09/09 A2987 RMK A01 T00920091  RH  099%=      5-min Rain = 0
KOD1 161044Z 35007KT 09/09 A2987 RMK A01 T00920091  RH  099%=      5-min Rain = 0
KOD1 161045Z 35008KT 09/09 A2987 RMK A01 T00920091  RH  099%=      5-min Rain = 0
KOD1 161046Z 35007KT 09/09 A2987 RMK A01 T00920091  RH  099%=      5-min Rain = 0
KOD1 161047Z 35008KT 09/09 A2988 RMK A01 T00920091  RH  099%=      5-min Rain = 0
KOD1 161048Z 34008KT 09/09 A2988 RMK A01 T00920091  RH  099%=      5-min Rain = 0
KOD1 161049Z 34008KT 09/09 A2988 RMK A01 T00910090  RH  100%=      5-min Rain = 0
KOD1 161050Z 34009KT 09/09 A2988 RMK A01 T00910090  RH  100%=      5-min Rain = 0
KOD1 161051Z 33010KT 09/09 A2988 RMK A01 T00910090  RH  099%=      5-min Rain = 0
KOD1 161052Z 34010KT 09/09 A2988 RMK A01 T00900090  RH  099%=      5-min Rain = 0
KOD1 161053Z 33009KT 09/09 A2989 RMK A01 T00900090  RH  100%=      5-min Rain = 0
KOD1 161054Z 33009KT 09/09 A2989 RMK A01 T00900090  RH  100%=      5-min Rain = 0
KOD1 161055Z 33009KT 09/09 A2989 RMK A01 T00900090  RH  100%=      5-min Rain = 0
KOD1 161056Z 33010KT 09/09 A2988 RMK A01 T00900089  RH  100%=      5-min Rain = 0
KOD1 161057Z 34009KT 09/09 A2988 RMK A01 T00900089  RH  100%=      5-min Rain = 0
KOD1 161058Z 34011KT 09/09 A2988 RMK A01 T00900089  RH  100%=      5-min Rain = 0
KOD1 161059Z 34009KT 09/09 A2988 RMK A01 T00890088  RH  100%=      5-min Rain = 0
KOD1 161100Z 34008KT 09/09 A2988 RMK A01 T00890088  RH  100%=      5-min Rain = 0
KOD1 161101Z 34010KT 09/09 A2988 RMK A01 T00890088  RH  100%=      5-min Rain = 0
KOD1 161102Z 34009KT 09/09 A2989 RMK A01 T00890088  RH  100%=      5-min Rain = 0
KOD1 161103Z 34009KT 09/09 A2989 RMK A01 T00890089  RH  100%=      5-min Rain = 0
KOD1 161104Z 35010KT 09/09 A2989 RMK A01 T00890088  RH  100%=      5-min Rain = 0
KOD1 161105Z 34009KT 09/09 A2989 RMK A01 T00890088  RH  100%=      5-min Rain = 0
KOD1 161106Z 34009KT 09/09 A2989 RMK A01 T00890088  RH  100%=      5-min Rain = 0
KOD1 161107Z 34009KT 09/09 A2989 RMK A01 T00890088  RH  100%=      5-min Rain = 0
KOD1 161108Z 34010KT 09/09 A2989 RMK A01 T00890088  RH  100%=      5-min Rain = 0
KOD1 161109Z 34009KT 09/09 A2989 RMK A01 T00890088  RH  100%=      5-min Rain = 0
KOD1 161110Z 34008KT 09/09 A2989 RMK A01 T00890089  RH  100%=      5-min Rain = 0
KOD1 161111Z 34010KT 09/09 A2989 RMK A01 T00890088  RH  100%=      5-min Rain = 0
KOD1 161112Z 34010KT 09/09 A2989 RMK A01 T00880088  RH  100%=      5-min Rain = 0
KOD1 161113Z 34010KT 09/09 A2989 RMK A01 T00890088  RH  100%=      5-min Rain = 0
KOD1 161114Z 34010KT 09/09 A2989 RMK A01 T00890088  RH  100%=      5-min Rain = 0
KOD1 161115Z 34013KT 09/09 A2989 RMK A01 T00890088  RH  100%=      5-min Rain = 0
KOD1 161116Z 34012KT 09/09 A2989 RMK A01 T00880087  RH  100%=      5-min Rain = 0
KOD1 161117Z 35013KT 09/09 A2989 RMK A01 T00880087  RH  100%=      5-min Rain = 0
KOD1 161118Z 35011KT 09/09 A2989 RMK A01 T00880087  RH  100%=      5-min Rain = 0
KOD1 161119Z 35009KT 09/09 A2989 RMK A01 T00880087  RH  100%=      5-min Rain = 0
KOD1 161120Z 34010KT 09/09 A2989 RMK A01 T00880087  RH  100%=      5-min Rain = 0
KOD1 161121Z 35011KT 09/09 A2989 RMK A01 T00870087  RH  100%=      5-min Rain = 0
KOD1 161122Z 35011KT 09/09 A2989 RMK A01 T00870087  RH  100%=      5-min Rain = 0
KOD1 161123Z 35009KT 09/09 A2989 RMK A01 T00870087  RH  100%=      5-min Rain = 0
KOD1 161124Z 35010KT 09/09 A2989 RMK A01 T00870087  RH  100%=      5-min Rain = 0
KOD1 161125Z 35009KT 09/09 A2989 RMK A01 T00870087  RH  100%=      5-min Rain = 0
KOD1 161126Z 35012KT 09/09 A2989 RMK A01 T00870086  RH  100%=      5-min Rain = 0
KOD1 161127Z 35010KT 09/09 A2989 RMK A01 T00860086  RH  100%=      5-min Rain = 0
KOD1 161128Z 35011KT 09/09 A2989 RMK A01 T00870086  RH  100%=      5-min Rain = 0
KOD1 161129Z 35011KT 09/09 A2989 RMK A01 T00870086  RH  100%=      5-min Rain = 0
KOD1 161130Z 35008KT 09/09 A2989 RMK A01 T00870086  RH  100%=      5-min Rain = 0.01
KOD1 161131Z 35009KT 09/09 A2989 RMK A01 T00860086  RH  100%=      5-min Rain = 0
KOD1 161132Z 35010KT 09/09 A2989 RMK A01 T00870086  RH  100%=      5-min Rain = 0
KOD1 161133Z 35011KT 09/09 A2989 RMK A01 T00870086  RH  100%=      5-min Rain = 0
KOD1 161134Z 35011KT 09/09 A2989 RMK A01 T00860086  RH  100%=      5-min Rain = 0
KOD1 161135Z 35011KT 09/09 A2989 RMK A01 T00860085  RH  099%=      5-min Rain = 0
KOD1 161136Z 35011KT 09/09 A2989 RMK A01 T00860085  RH  100%=      5-min Rain = 0
KOD1 161137Z 35012KT 09/09 A2989 RMK A01 T00860085  RH  100%=      5-min Rain = 0
KOD1 161138Z 35010KT 09/09 A2989 RMK A01 T00860085  RH  100%=      5-min Rain = 0
KOD1 161139Z 36011KT 09/09 A2989 RMK A01 T00860085  RH  099%=      5-min Rain = 0
KOD1 161140Z 36010KT 09/09 A2989 RMK A01 T00860086  RH  100%=      5-min Rain = 0
KOD1 161141Z 35010KT 09/09 A2989 RMK A01 T00870086  RH  100%=      5-min Rain = 0
KOD1 161142Z 35008KT 09/09 A2989 RMK A01 T00860086  RH  100%=      5-min Rain = 0
KOD1 161143Z 36009KT 09/09 A2989 RMK A01 T00860086  RH  100%=      5-min Rain = 0
KOD1 161144Z 36008KT 09/09 A2989 RMK A01 T00870086  RH  100%=      5-min Rain = 0
KOD1 161145Z 36008KT 09/09 A2989 RMK A01 T00870087  RH  100%=      5-min Rain = 0
KOD1 161146Z 36009KT 09/09 A2989 RMK A01 T00870086  RH  100%=      5-min Rain = 0
KOD1 161147Z 36009KT 09/09 A2989 RMK A01 T00860086  RH  100%=      5-min Rain = 0
KOD1 161148Z 36009KT 09/09 A2989 RMK A01 T00870086  RH  100%=      5-min Rain = 0
KOD1 161149Z 00009KT 09/09 A2989 RMK A01 T00860086  RH  100%=      5-min Rain = 0
KOD1 161150Z 01007KT 09/09 A2989 RMK A01 T00860086  RH  100%=      5-min Rain = 0
KOD1 161151Z 01007KT 09/09 A2989 RMK A01 T00870087  RH  100%=      5-min Rain = 0
KOD1 161152Z 01007KT 09/09 A2989 RMK A01 T00870087  RH  100%=      5-min Rain = 0
KOD1 161153Z 01011KT 09/09 A2989 RMK A01 T00870086  RH  100%=      5-min Rain = 0
KOD1 161154Z 00011KT 09/09 A2989 RMK A01 T00860086  RH  100%=      5-min Rain = 0
KOD1 161155Z 01012KT 09/09 A2989 RMK A01 T00860085  RH  100%=      5-min Rain = 0
KOD1 161156Z 01011KT 09/09 A2989 RMK A01 T00860085  RH  100%=      5-min Rain = 0
KOD1 161157Z 00011KT 09/09 A2989 RMK A01 T00850085  RH  100%=      5-min Rain = 0
KOD1 161158Z 00010KT 09/08 A2989 RMK A01 T00850084  RH  100%=      5-min Rain = 0
KOD1 161159Z 36011KT 08/08 A2989 RMK A01 T00840084  RH  100%=      5-min Rain = 0
KOD1 161200Z 01009KT 09/08 A2989 RMK A01 T00850084  RH  100%=      5-min Rain = 0
KOD1 161201Z 01009KT 09/08 A2989 RMK A01 T00850084  RH  100%=      5-min Rain = 0
KOD1 161202Z 01009KT 09/08 A2988 RMK A01 T00850084  RH  100%=      5-min Rain = 0
KOD1 161203Z 01008KT 09/08 A2988 RMK A01 T00850084  RH  100%=      5-min Rain = 0
KOD1 161204Z 01007KT 09/08 A2988 RMK A01 T00850084  RH  100%=      5-min Rain = 0
KOD1 161205Z 02008KT 09/08 A2988 RMK A01 T00850084  RH  100%=      5-min Rain = 0
KOD1 161206Z 01009KT 08/08 A2988 RMK A01 T00840084  RH  100%=      5-min Rain = 0
KOD1 161207Z 01008KT 08/08 A2988 RMK A01 T00840084  RH  100%=      5-min Rain = 0
KOD1 161208Z 02009KT 09/08 A2988 RMK A01 T00850084  RH  100%=      5-min Rain = 0
KOD1 161209Z 01010KT 08/08 A2988 RMK A01 T00840084  RH  100%=      5-min Rain = 0
KOD1 161210Z 02009KT 09/08 A2988 RMK A01 T00850084  RH  100%=      5-min Rain = 0
KOD1 161211Z 02009KT 08/08 A2988 RMK A01 T00840083  RH  100%=      5-min Rain = 0
KOD1 161212Z 02008KT 08/08 A2988 RMK A01 T00840083  RH  100%=      5-min Rain = 0
KOD1 161213Z 01008KT 08/08 A2988 RMK A01 T00840084  RH  100%=      5-min Rain = 0
KOD1 161214Z 02008KT 09/08 A2988 RMK A01 T00850084  RH  100%=      5-min Rain = 0
KOD1 161215Z 02008KT 09/08 A2988 RMK A01 T00850084  RH  100%=      5-min Rain = 0
KOD1 161216Z 02008KT 09/08 A2988 RMK A01 T00850084  RH  100%=      5-min Rain = 0
KOD1 161217Z 02008KT 08/08 A2988 RMK A01 T00840084  RH  100%=      5-min Rain = 0
KOD1 161218Z 02007KT 09/08 A2988 RMK A01 T00850084  RH  100%=      5-min Rain = 0
KOD1 161219Z 02008KT 09/08 A2988 RMK A01 T00850084  RH  100%=      5-min Rain = 0
KOD1 161220Z 02009KT 08/08 A2988 RMK A01 T00840084  RH  100%=      5-min Rain = 0
KOD1 161221Z 01010KT 08/08 A2988 RMK A01 T00840083  RH  100%=      5-min Rain = 0
KOD1 161222Z 01009KT 08/08 A2988 RMK A01 T00840083  RH  100%=      5-min Rain = 0
KOD1 161223Z 01010KT 08/08 A2988 RMK A01 T00840083  RH  100%=      5-min Rain = 0
KOD1 161224Z 02010KT 08/08 A2988 RMK A01 T00840083  RH  100%=      5-min Rain = 0
KOD1 161225Z 01010KT 08/08 A2988 RMK A01 T00840083  RH  100%=      5-min Rain = 0
KOD1 161226Z 01010KT 08/08 A2988 RMK A01 T00840084  RH  100%=      5-min Rain = 0
KOD1 161227Z 02011KT 08/08 A2988 RMK A01 T00840083  RH  100%=      5-min Rain = 0
KOD1 161228Z 01011KT 08/08 A2988 RMK A01 T00840084  RH  100%=      5-min Rain = 0
KOD1 161229Z 01008KT 09/08 A2988 RMK A01 T00850084  RH  100%=      5-min Rain = 0
KOD1 161230Z 02009KT 09/08 A2988 RMK A01 T00850084  RH  100%=      5-min Rain = 0
KOD1 161231Z 01009KT 09/08 A2988 RMK A01 T00850084  RH  100%=      5-min Rain = 0
KOD1 161232Z 01009KT 08/08 A2988 RMK A01 T00840084  RH  100%=      5-min Rain = 0
KOD1 161233Z 01008KT 09/08 A2988 RMK A01 T00850084  RH  100%=      5-min Rain = 0
KOD1 161234Z 01008KT 09/09 A2988 RMK A01 T00850085  RH  100%=      5-min Rain = 0
KOD1 161235Z 01008KT 09/09 A2988 RMK A01 T00850085  RH  100%=      5-min Rain = 0
KOD1 161236Z 01009KT 09/09 A2988 RMK A01 T00850085  RH  100%=      5-min Rain = 0
KOD1 161237Z 01010KT 09/09 A2989 RMK A01 T00850085  RH  100%=      5-min Rain = 0
KOD1 161238Z 01010KT 09/08 A2989 RMK A01 T00850084  RH  100%=      5-min Rain = 0
KOD1 161239Z 01008KT 09/09 A2989 RMK A01 T00850085  RH  100%=      5-min Rain = 0
KOD1 161240Z 02008KT 09/09 A2988 RMK A01 T00850085  RH  100%=      5-min Rain = 0
KOD1 161241Z 02008KT 09/09 A2988 RMK A01 T00850085  RH  100%=      5-min Rain = 0
KOD1 161242Z 02010KT 09/08 A2989 RMK A01 T00850084  RH  100%=      5-min Rain = 0
KOD1 161243Z 01009G14KT 09/09 A2989 RMK A01 T00850085  RH  100%=      5-min Rain = 0
KOD1 161244Z 02011KT 09/08 A2989 RMK A01 T00850084  RH  100%=      5-min Rain = 0
KOD1 161245Z 01011KT 09/08 A2989 RMK A01 T00850084  RH  100%=      5-min Rain = 0
KOD1 161246Z 01011KT 09/08 A2989 RMK A01 T00850084  RH  100%=      5-min Rain = 0
KOD1 161247Z 01010KT 09/09 A2989 RMK A01 T00850085  RH  100%=      5-min Rain = 0
KOD1 161248Z 02009KT 09/09 A2989 RMK A01 T00850085  RH  100%=      5-min Rain = 0
KOD1 161249Z 01009KT 09/09 A2989 RMK A01 T00850085  RH  100%=      5-min Rain = 0
KOD1 161250Z 01011KT 09/09 A2989 RMK A01 T00850085  RH  100%=      5-min Rain = 0
KOD1 161251Z 02009KT 09/09 A2989 RMK A01 T00850085  RH  100%=      5-min Rain = 0
KOD1 161252Z 01009KT 09/09 A2989 RMK A01 T00860085  RH  100%=      5-min Rain = 0
KOD1 161253Z 01009KT 09/09 A2989 RMK A01 T00860085  RH  100%=      5-min Rain = 0
KOD1 161254Z 02011KT 09/09 A2989 RMK A01 T00860085  RH  100%=      5-min Rain = 0
KOD1 161255Z 01012KT 09/09 A2989 RMK A01 T00860085  RH  100%=      5-min Rain = 0
KOD1 161256Z 01012KT 09/09 A2989 RMK A01 T00850085  RH  100%=      5-min Rain = 0
KOD1 161257Z 01010KT 09/09 A2989 RMK A01 T00850085  RH  100%=      5-min Rain = 0
KOD1 161258Z 01010KT 09/09 A2989 RMK A01 T00860085  RH  100%=      5-min Rain = 0
KOD1 161259Z 02009KT 09/09 A2989 RMK A01 T00860086  RH  100%=      5-min Rain = 0
KOD1 161300Z 01007KT 09/09 A2989 RMK A01 T00870086  RH  100%=      5-min Rain = 0
KOD1 161301Z 01011KT 09/09 A2989 RMK A01 T00860086  RH  100%=      5-min Rain = 0
KOD1 161302Z 01010KT 09/09 A2989 RMK A01 T00860085  RH  100%=      5-min Rain = 0
KOD1 161303Z 01009KT 09/09 A2989 RMK A01 T00860085  RH  100%=      5-min Rain = 0
KOD1 161304Z 01010KT 09/09 A2989 RMK A01 T00860085  RH  100%=      5-min Rain = 0
KOD1 161305Z 02008KT 09/09 A2989 RMK A01 T00860085  RH  100%=      5-min Rain = 0
KOD1 161306Z 02009KT 09/09 A2988 RMK A01 T00860085  RH  100%=      5-min Rain = 0
KOD1 161307Z 02010KT 09/09 A2988 RMK A01 T00860086  RH  100%=      5-min Rain = 0
KOD1 161308Z 02009KT 09/09 A2988 RMK A01 T00860085  RH  100%=      5-min Rain = 0
KOD1 161309Z 03009KT 09/09 A2988 RMK A01 T00860085  RH  100%=      5-min Rain = 0
KOD1 161310Z 02009KT 09/09 A2988 RMK A01 T00870086  RH  100%=      5-min Rain = 0
KOD1 161311Z 03008KT 09/09 A2988 RMK A01 T00870087  RH  100%=      5-min Rain = 0
KOD1 161312Z 03008KT 09/09 A2988 RMK A01 T00870087  RH  100%=      5-min Rain = 0
KOD1 161313Z 02009KT 09/09 A2988 RMK A01 T00870087  RH  100%=      5-min Rain = 0
KOD1 161314Z 02009KT 09/09 A2988 RMK A01 T00870087  RH  100%=      5-min Rain = 0
KOD1 161315Z 02009KT 09/09 A2988 RMK A01 T00870087  RH  100%=      5-min Rain = 0
KOD1 161316Z 03009KT 09/09 A2988 RMK A01 T00870086  RH  100%=      5-min Rain = 0
KOD1 161317Z 02009KT 09/09 A2988 RMK A01 T00870086  RH  100%=      5-min Rain = 0
KOD1 161318Z 03010KT 09/09 A2988 RMK A01 T00870086  RH  100%=      5-min Rain = 0
KOD1 161319Z 02010KT 09/09 A2988 RMK A01 T00870086  RH  100%=      5-min Rain = 0
KOD1 161320Z 02011KT 09/09 A2988 RMK A01 T00870086  RH  099%=      5-min Rain = 0
KOD1 161321Z 02011KT 09/09 A2988 RMK A01 T00870086  RH  099%=      5-min Rain = 0
KOD1 161322Z 02010KT 09/09 A2989 RMK A01 T00870086  RH  099%=      5-min Rain = 0
KOD1 161323Z 02011KT 09/09 A2989 RMK A01 T00880087  RH  099%=      5-min Rain = 0
KOD1 161324Z 02011KT 09/09 A2989 RMK A01 T00870086  RH  099%=      5-min Rain = 0
KOD1 161325Z 02009KT 09/09 A2989 RMK A01 T00880087  RH  099%=      5-min Rain = 0
KOD1 161326Z 01011KT 09/09 A2989 RMK A01 T00880087  RH  099%=      5-min Rain = 0
KOD1 161327Z 01010KT 09/09 A2989 RMK A01 T00880087  RH  099%=      5-min Rain = 0
KOD1 161328Z 01008KT 09/09 A2989 RMK A01 T00880087  RH  099%=      5-min Rain = 0
KOD1 161329Z 01010KT 09/09 A2989 RMK A01 T00880087  RH  099%=      5-min Rain = 0
KOD1 161330Z 01010KT 09/09 A2989 RMK A01 T00880087  RH  099%=      5-min Rain = 0
KOD1 161331Z 00009KT 09/09 A2989 RMK A01 T00890088  RH  099%=      5-min Rain = 0
KOD1 161332Z 01009KT 09/09 A2989 RMK A01 T00880088  RH  099%=      5-min Rain = 0
KOD1 161333Z 01010KT 09/09 A2989 RMK A01 T00880087  RH  099%=      5-min Rain = 0
KOD1 161334Z 01008KT 09/09 A2989 RMK A01 T00880087  RH  099%=      5-min Rain = 0
KOD1 161335Z 01008KT 09/09 A2989 RMK A01 T00880088  RH  099%=      5-min Rain = 0
KOD1 161336Z 01008KT 09/09 A2989 RMK A01 T00890088  RH  099%=      5-min Rain = 0
KOD1 161337Z 01008KT 09/09 A2989 RMK A01 T00890088  RH  099%=      5-min Rain = 0
KOD1 161338Z 01009KT 09/09 A2989 RMK A01 T00890088  RH  099%=      5-min Rain = 0
KOD1 161339Z 01008KT 09/09 A2989 RMK A01 T00890088  RH  099%=      5-min Rain = 0
KOD1 161340Z 01010KT 09/09 A2989 RMK A01 T00900089  RH  099%=      5-min Rain = 0
KOD1 161341Z 02010KT 09/09 A2989 RMK A01 T00890088  RH  099%=      5-min Rain = 0
KOD1 161342Z 01010KT 09/09 A2989 RMK A01 T00890088  RH  099%=      5-min Rain = 0
KOD1 161343Z 01010KT 09/09 A2989 RMK A01 T00890088  RH  099%=      5-min Rain = 0
KOD1 161344Z 01009KT 09/09 A299 RMK A01 T00890088  RH  099%=      5-min Rain = 0
KOD1 161345Z 01008KT 09/09 A299 RMK A01 T00900089  RH  099%=      5-min Rain = 0
KOD1 161346Z 00010KT 09/09 A299 RMK A01 T00900089  RH  099%=      5-min Rain = 0
KOD1 161347Z 01009KT 09/09 A299 RMK A01 T00900089  RH  099%=      5-min Rain = 0
KOD1 161348Z 01010KT 09/09 A299 RMK A01 T00900089  RH  099%=      5-min Rain = 0
KOD1 161349Z 01010KT 09/09 A299 RMK A01 T00890088  RH  099%=      5-min Rain = 0
KOD1 161350Z 00008KT 09/09 A299 RMK A01 T00900089  RH  099%=      5-min Rain = 0
KOD1 161351Z 01008KT 09/09 A299 RMK A01 T00910090  RH  099%=      5-min Rain = 0
KOD1 161352Z 01009KT 09/09 A299 RMK A01 T00900089  RH  099%=      5-min Rain = 0
KOD1 161353Z 01010KT 09/09 A299 RMK A01 T00900089  RH  099%=      5-min Rain = 0
KOD1 161354Z 02009KT 09/09 A299 RMK A01 T00910089  RH  099%=      5-min Rain = 0
KOD1 161355Z 02008KT 09/09 A299 RMK A01 T00910090  RH  099%=      5-min Rain = 0
KOD1 161356Z 02007KT 09/09 A299 RMK A01 T00920091  RH  099%=      5-min Rain = 0
KOD1 161357Z 02009KT 09/09 A299 RMK A01 T00920091  RH  099%=      5-min Rain = 0
KOD1 161358Z 01008KT 09/09 A299 RMK A01 T00910090  RH  099%=      5-min Rain = 0
KOD1 161359Z 01009KT 09/09 A299 RMK A01 T00920091  RH  099%=      5-min Rain = 0
KOD1 161400Z 01009KT 09/09 A299 RMK A01 T00920091  RH  099%=      5-min Rain = 0
KOD1 161401Z 02008KT 09/09 A2991 RMK A01 T00910090  RH  099%=      5-min Rain = 0
KOD1 161402Z 01008KT 09/09 A2991 RMK A01 T00930092  RH  099%=      5-min Rain = 0
KOD1 161403Z 00008KT 09/09 A2991 RMK A01 T00930092  RH  099%=      5-min Rain = 0
KOD1 161404Z 00009KT 09/09 A2991 RMK A01 T00930091  RH  099%=      5-min Rain = 0
KOD1 161405Z 01009KT 09/09 A2991 RMK A01 T00920090  RH  099%=      5-min Rain = 0
KOD1 161406Z 01008KT 09/09 A2991 RMK A01 T00920091  RH  099%=      5-min Rain = 0
KOD1 161407Z 00008KT 09/09 A2991 RMK A01 T00920091  RH  099%=      5-min Rain = 0
KOD1 161408Z 00010KT 09/09 A2991 RMK A01 T00920091  RH  099%=      5-min Rain = 0
KOD1 161409Z 00010KT 09/09 A2991 RMK A01 T00910089  RH  099%=      5-min Rain = 0
KOD1 161410Z 00011KT 09/09 A2991 RMK A01 T00910089  RH  099%=      5-min Rain = 0
KOD1 161411Z 36009KT 09/09 A2991 RMK A01 T00910089  RH  099%=      5-min Rain = 0
KOD1 161412Z 01009KT 09/09 A2991 RMK A01 T00920090  RH  099%=      5-min Rain = 0
KOD1 161413Z 00010KT 09/09 A2991 RMK A01 T00920090  RH  099%=      5-min Rain = 0
KOD1 161414Z 36011KT 09/09 A2991 RMK A01 T00910089  RH  099%=      5-min Rain = 0
KOD1 161415Z 36011KT 09/09 A2991 RMK A01 T00910089  RH  099%=      5-min Rain = 0
KOD1 161416Z 00012KT 09/09 A2991 RMK A01 T00910089  RH  099%=      5-min Rain = 0
KOD1 161417Z 36011KT 09/09 A2991 RMK A01 T00910089  RH  099%=      5-min Rain = 0
KOD1 161418Z 36010KT 09/09 A2991 RMK A01 T00910089  RH  099%=      5-min Rain = 0
KOD1 161419Z 00010KT 09/09 A2991 RMK A01 T00910089  RH  099%=      5-min Rain = 0
KOD1 161420Z 00011KT 09/09 A2991 RMK A01 T00900089  RH  099%=      5-min Rain = 0
KOD1 161421Z 00011KT 09/09 A2991 RMK A01 T00910089  RH  099%=      5-min Rain = 0
KOD1 161422Z 35011KT 09/09 A2991 RMK A01 T00910089  RH  099%=      5-min Rain = 0
KOD1 161423Z 36011KT 09/09 A2991 RMK A01 T00910089  RH  099%=      5-min Rain = 0
KOD1 161424Z 36011KT 09/09 A2991 RMK A01 T00910089  RH  099%=      5-min Rain = 0
KOD1 161425Z 36010KT 09/09 A2991 RMK A01 T00900088  RH  099%=      5-min Rain = 0
KOD1 161426Z 36009KT 09/09 A2991 RMK A01 T00910089  RH  099%=      5-min Rain = 0
KOD1 161427Z 36009KT 09/09 A2991 RMK A01 T00910089  RH  099%=      5-min Rain = 0
KOD1 161428Z 01009KT 09/09 A2991 RMK A01 T00910089  RH  099%=      5-min Rain = 0
KOD1 161429Z 01010KT 09/09 A2991 RMK A01 T00910089  RH  098%=      5-min Rain = 0
KOD1 161430Z 36010KT 09/09 A2991 RMK A01 T00920090  RH  099%=      5-min Rain = 0
KOD1 161431Z 00010KT 09/09 A2991 RMK A01 T00910089  RH  098%=      5-min Rain = 0
KOD1 161432Z 00010KT 09/09 A2991 RMK A01 T00910088  RH  098%=      5-min Rain = 0
KOD1 161433Z 36010KT 09/09 A2991 RMK A01 T00920089  RH  098%=      5-min Rain = 0
KOD1 161434Z 36009KT 09/09 A2991 RMK A01 T00920089  RH  098%=      5-min Rain = 0
KOD1 161435Z 35010KT 09/09 A2991 RMK A01 T00930090  RH  098%=      5-min Rain = 0
KOD1 161436Z 35011KT 09/09 A2991 RMK A01 T00920089  RH  098%=      5-min Rain = 0
KOD1 161437Z 36010KT 09/09 A2991 RMK A01 T00910088  RH  098%=      5-min Rain = 0
KOD1 161438Z 35009KT 09/09 A2991 RMK A01 T00920089  RH  098%=      5-min Rain = 0
KOD1 161439Z 35009KT 09/09 A2991 RMK A01 T00930090  RH  098%=      5-min Rain = 0
KOD1 161440Z 35009KT 09/09 A2991 RMK A01 T00930091  RH  098%=      5-min Rain = 0
KOD1 161441Z 36010KT 09/09 A2992 RMK A01 T00920090  RH  098%=      5-min Rain = 0
KOD1 161442Z 36009KT 09/09 A2992 RMK A01 T00930090  RH  098%=      5-min Rain = 0
KOD1 161443Z 35010KT 09/09 A2992 RMK A01 T00930090  RH  098%=      5-min Rain = 0
KOD1 161444Z 00012KT 09/09 A2992 RMK A01 T00920089  RH  098%=      5-min Rain = 0
KOD1 161445Z 00011KT 09/09 A2992 RMK A01 T00920089  RH  098%=      5-min Rain = 0
KOD1 161446Z 00011KT 09/09 A2992 RMK A01 T00920089  RH  098%=      5-min Rain = 0
KOD1 161447Z 00012KT 09/09 A2992 RMK A01 T00920089  RH  098%=      5-min Rain = 0
KOD1 161448Z 35010KT 09/09 A2992 RMK A01 T00920089  RH  098%=      5-min Rain = 0
KOD1 161449Z 36010KT 09/09 A2992 RMK A01 T00930090  RH  098%=      5-min Rain = 0
KOD1 161450Z 35010KT 09/09 A2992 RMK A01 T00930090  RH  098%=      5-min Rain = 0
KOD1 161451Z 36009KT 09/09 A2992 RMK A01 T00940091  RH  098%=      5-min Rain = 0
KOD1 161452Z 36010KT 09/09 A2992 RMK A01 T00940091  RH  098%=      5-min Rain = 0
KOD1 161453Z 00011KT 09/09 A2992 RMK A01 T00930090  RH  098%=      5-min Rain = 0
KOD1 161454Z 36010KT 09/09 A2992 RMK A01 T00930090  RH  098%=      5-min Rain = 0
KOD1 161455Z 36012KT 09/09 A2992 RMK A01 T00930089  RH  098%=      5-min Rain = 0
KOD1 161456Z 36011KT 09/09 A2992 RMK A01 T00920088  RH  097%=      5-min Rain = 0
KOD1 161457Z 00011KT 09/09 A2992 RMK A01 T00920088  RH  097%=      5-min Rain = 0
KOD1 161458Z 36009KT 09/09 A2992 RMK A01 T00930089  RH  097%=      5-min Rain = 0
KOD1 161459Z 00009KT 09/09 A2992 RMK A01 T00940091  RH  098%=      5-min Rain = 0
KOD1 161500Z 36011KT 09/09 A2992 RMK A01 T00940090  RH  098%=      5-min Rain = 0
KOD1 161501Z 00010KT 09/09 A2992 RMK A01 T00940089  RH  097%=      5-min Rain = 0
KOD1 161502Z 36011KT 09/09 A2992 RMK A01 T00940090  RH  097%=      5-min Rain = 0
KOD1 161503Z 36009KT 09/09 A2992 RMK A01 T00940089  RH  097%=      5-min Rain = 0
KOD1 161504Z 36010KT 09/09 A2992 RMK A01 T00940090  RH  097%=      5-min Rain = 0
KOD1 161505Z 00011KT 09/09 A2992 RMK A01 T00940090  RH  097%=      5-min Rain = 0
KOD1 161506Z 00011KT 09/09 A2992 RMK A01 T00940090  RH  097%=      5-min Rain = 0
KOD1 161507Z 36009KT 09/09 A2992 RMK A01 T00940090  RH  097%=      5-min Rain = 0
KOD1 161508Z 00009KT 10/09 A2992 RMK A01 T00950090  RH  097%=      5-min Rain = 0
KOD1 161509Z 36010KT 10/09 A2992 RMK A01 T00950090  RH  097%=      5-min Rain = 0
KOD1 161510Z 36010KT 10/09 A2992 RMK A01 T00950090  RH  097%=      5-min Rain = 0
KOD1 161511Z 01009KT 10/09 A2992 RMK A01 T00950090  RH  097%=      5-min Rain = 0
KOD1 161512Z 36009KT 10/09 A2992 RMK A01 T00950090  RH  097%=      5-min Rain = 0
KOD1 161513Z 36010KT 10/09 A2992 RMK A01 T00950090  RH  097%=      5-min Rain = 0
KOD1 161514Z 36011KT 10/09 A2992 RMK A01 T00950090  RH  097%=      5-min Rain = 0
KOD1 161515Z 36008KT 10/09 A2992 RMK A01 T00960091  RH  097%=      5-min Rain = 0
KOD1 161516Z 00011KT 10/09 A2992 RMK A01 T00960091  RH  097%=      5-min Rain = 0
KOD1 161517Z 00010KT 10/09 A2992 RMK A01 T00960090  RH  096%=      5-min Rain = 0
KOD1 161518Z 00011KT 10/09 A2993 RMK A01 T00960090  RH  096%=      5-min Rain = 0
KOD1 161519Z 00009KT 10/09 A2993 RMK A01 T00960090  RH  096%=      5-min Rain = 0
KOD1 161520Z 01009KT 10/09 A2993 RMK A01 T00980092  RH  096%=      5-min Rain = 0
KOD1 161521Z 00009KT 10/09 A2993 RMK A01 T00970091  RH  096%=      5-min Rain = 0
KOD1 161522Z 01011KT 10/09 A2993 RMK A01 T00970091  RH  096%=      5-min Rain = 0
KOD1 161523Z 01008KT 10/09 A2993 RMK A01 T00970091  RH  096%=      5-min Rain = 0
KOD1 161524Z 01009KT 10/09 A2993 RMK A01 T00980092  RH  096%=      5-min Rain = 0
KOD1 161525Z 00010KT 10/09 A2993 RMK A01 T00980091  RH  096%=      5-min Rain = 0
KOD1 161526Z 00010KT 10/09 A2993 RMK A01 T00970090  RH  095%=      5-min Rain = 0
KOD1 161527Z 00012KT 10/09 A2993 RMK A01 T00970090  RH  095%=      5-min Rain = 0
KOD1 161528Z 00011KT 10/09 A2993 RMK A01 T00970089  RH  095%=      5-min Rain = 0
KOD1 161529Z 01010KT 10/09 A2993 RMK A01 T00970090  RH  095%=      5-min Rain = 0
KOD1 161530Z 00010KT 10/09 A2993 RMK A01 T00980091  RH  095%=      5-min Rain = 0
KOD1 161531Z 36009KT 10/09 A2993 RMK A01 T00980091  RH  095%=      5-min Rain = 0
KOD1 161532Z 35009KT 10/09 A2993 RMK A01 T00980091  RH  095%=      5-min Rain = 0
KOD1 161533Z 36011KT 10/09 A2993 RMK A01 T00980091  RH  095%=      5-min Rain = 0
KOD1 161534Z 00011KT 10/09 A2993 RMK A01 T00980090  RH  095%=      5-min Rain = 0
KOD1 161535Z 36012KT 10/09 A2993 RMK A01 T00980090  RH  095%=      5-min Rain = 0
KOD1 161536Z 00010KT 10/09 A2993 RMK A01 T00980090  RH  095%=      5-min Rain = 0
KOD1 161537Z 36011KT 10/09 A2993 RMK A01 T00980090  RH  095%=      5-min Rain = 0
KOD1 161538Z 36010KT 10/09 A2993 RMK A01 T00970089  RH  095%=      5-min Rain = 0
KOD1 161539Z 35009KT 10/09 A2993 RMK A01 T00980090  RH  095%=      5-min Rain = 0
KOD1 161540Z 36010KT 10/09 A2993 RMK A01 T00980091  RH  095%=      5-min Rain = 0
KOD1 161541Z 35011KT 10/09 A2993 RMK A01 T00980090  RH  095%=      5-min Rain = 0
KOD1 161542Z 36012KT 10/09 A2994 RMK A01 T00980089  RH  094%=      5-min Rain = 0
KOD1 161543Z 35012KT 10/09 A2994 RMK A01 T00970087  RH  094%=      5-min Rain = 0
KOD1 161544Z 36012KT 10/09 A2994 RMK A01 T00970088  RH  094%=      5-min Rain = 0
KOD1 161545Z 36010KT 10/09 A2994 RMK A01 T00980089  RH  094%=      5-min Rain = 0
KOD1 161546Z 35010KT 10/09 A2994 RMK A01 T00980089  RH  094%=      5-min Rain = 0
KOD1 161547Z 35009KT 10/09 A2994 RMK A01 T00980090  RH  094%=      5-min Rain = 0
KOD1 161548Z 35010KT 10/09 A2994 RMK A01 T00980089  RH  094%=      5-min Rain = 0
KOD1 161549Z 35008KT 10/09 A2994 RMK A01 T00980090  RH  094%=      5-min Rain = 0
KOD1 161550Z 35009KT 10/09 A2994 RMK A01 T00990091  RH  095%=      5-min Rain = 0
KOD1 161551Z 34011KT 10/09 A2993 RMK A01 T00990090  RH  094%=      5-min Rain = 0
KOD1 161552Z 34011KT 10/09 A2993 RMK A01 T00980088  RH  094%=      5-min Rain = 0
KOD1 161553Z 35009KT 10/09 A2993 RMK A01 T00980088  RH  094%=      5-min Rain = 0
KOD1 161554Z 35009KT 10/09 A2993 RMK A01 T00990090  RH  094%=      5-min Rain = 0
KOD1 161555Z 35009KT 10/09 A2993 RMK A01 T00990090  RH  094%=      5-min Rain = 0
KOD1 161556Z 34011KT 10/09 A2993 RMK A01 T00990090  RH  094%=      5-min Rain = 0
KOD1 161557Z 34009KT 10/09 A2993 RMK A01 T00990089  RH  094%=      5-min Rain = 0
KOD1 161558Z 35009KT 10/09 A2993 RMK A01 T00990089  RH  094%=      5-min Rain = 0
KOD1 161559Z 35007KT 10/09 A2993 RMK A01 T00990090  RH  094%=      5-min Rain = 0
KOD1 161600Z 35008KT 10/09 A2994 RMK A01 T01010091  RH  094%=      5-min Rain = 0
KOD1 161601Z 35010KT 10/09 A2993 RMK A01 T01000091  RH  094%=      5-min Rain = 0
KOD1 161602Z 35010KT 10/09 A2993 RMK A01 T01000090  RH  094%=      5-min Rain = 0
KOD1 161603Z 36010KT 10/09 A2993 RMK A01 T01000090  RH  093%=      5-min Rain = 0
KOD1 161604Z 35010KT 10/09 A2993 RMK A01 T01000089  RH  093%=      5-min Rain = 0
KOD1 161605Z 35010KT 10/09 A2993 RMK A01 T00990089  RH  093%=      5-min Rain = 0
KOD1 161606Z 35011KT 10/09 A2993 RMK A01 T00990088  RH  093%=      5-min Rain = 0
KOD1 161607Z 35009KT 10/09 A2993 RMK A01 T01000089  RH  093%=      5-min Rain = 0
KOD1 161608Z 35008KT 10/09 A2993 RMK A01 T01010090  RH  093%=      5-min Rain = 0
KOD1 161609Z 35010KT 10/09 A2994 RMK A01 T01020092  RH  094%=      5-min Rain = 0
KOD1 161610Z 35010KT 10/09 A2994 RMK A01 T01010090  RH  093%=      5-min Rain = 0
KOD1 161611Z 35011KT 10/09 A2994 RMK A01 T01020091  RH  093%=      5-min Rain = 0
KOD1 161612Z 35011KT 10/09 A2994 RMK A01 T01020090  RH  093%=      5-min Rain = 0
KOD1 161613Z 36010KT 10/09 A2994 RMK A01 T01020090  RH  092%=      5-min Rain = 0
KOD1 161614Z 00011KT 10/09 A2994 RMK A01 T01020090  RH  092%=      5-min Rain = 0
KOD1 161615Z 35011KT 10/09 A2994 RMK A01 T01020090  RH  092%=      5-min Rain = 0
KOD1 161616Z 36009KT 10/09 A2994 RMK A01 T01010089  RH  092%=      5-min Rain = 0
KOD1 161617Z 34008KT 10/09 A2994 RMK A01 T01030091  RH  093%=      5-min Rain = 0
KOD1 161618Z 34009KT 10/09 A2994 RMK A01 T01030091  RH  092%=      5-min Rain = 0
KOD1 161619Z 34010KT 10/09 A2994 RMK A01 T01020090  RH  092%=      5-min Rain = 0
KOD1 161620Z 34009KT 10/09 A2993 RMK A01 T01020090  RH  092%=      5-min Rain = 0
KOD1 161621Z 33009KT 10/09 A2993 RMK A01 T01020090  RH  092%=      5-min Rain = 0
KOD1 161622Z 34007KT 10/09 A2994 RMK A01 T01040093  RH  093%=      5-min Rain = 0
KOD1 161623Z 34008KT 11/10 A2994 RMK A01 T01060095  RH  093%=      5-min Rain = 0
KOD1 161624Z 35008KT 11/09 A2994 RMK A01 T01060094  RH  092%=      5-min Rain = 0
KOD1 161625Z 34008KT 11/09 A2994 RMK A01 T01060094  RH  092%=      5-min Rain = 0
KOD1 161626Z 34010KT 11/09 A2993 RMK A01 T01060094  RH  092%=      5-min Rain = 0
KOD1 161627Z 35009KT 11/09 A2993 RMK A01 T01050092  RH  092%=      5-min Rain = 0
KOD1 161628Z 34009KT 11/09 A2994 RMK A01 T01050092  RH  092%=      5-min Rain = 0
KOD1 161629Z 35007KT 11/09 A2994 RMK A01 T01050093  RH  092%=      5-min Rain = 0
KOD1 161630Z 33008KT 11/09 A2994 RMK A01 T01050093  RH  092%=      5-min Rain = 0
KOD1 161631Z 34009KT 11/09 A2994 RMK A01 T01050092  RH  092%=      5-min Rain = 0
KOD1 161632Z 34009KT 11/09 A2994 RMK A01 T01050092  RH  092%=      5-min Rain = 0
KOD1 161633Z 34008KT 10/09 A2994 RMK A01 T01040092  RH  092%=      5-min Rain = 0
KOD1 161634Z 34008KT 10/09 A2994 RMK A01 T01040092  RH  092%=      5-min Rain = 0
KOD1 161635Z 34008KT 10/09 A2993 RMK A01 T01030091  RH  092%=      5-min Rain = 0
KOD1 161636Z 33010KT 10/09 A2993 RMK A01 T01030091  RH  092%=      5-min Rain = 0
KOD1 161637Z 33010KT 10/09 A2993 RMK A01 T01030090  RH  092%=      5-min Rain = 0
KOD1 161638Z 33012KT 10/09 A2993 RMK A01 T01020090  RH  092%=      5-min Rain = 0
KOD1 161639Z 33010KT 10/09 A2993 RMK A01 T01020090  RH  092%=      5-min Rain = 0
KOD1 161640Z 33010KT 10/09 A2993 RMK A01 T01030091  RH  092%=      5-min Rain = 0
KOD1 161641Z 33010KT 10/09 A2993 RMK A01 T01020090  RH  092%=      5-min Rain = 0
KOD1 161642Z 35009KT 10/09 A2993 RMK A01 T01030091  RH  092%=      5-min Rain = 0
KOD1 161643Z 34011KT 10/09 A2993 RMK A01 T01030092  RH  092%=      5-min Rain = 0
KOD1 161644Z 35010KT 10/09 A2993 RMK A01 T01020090  RH  092%=      5-min Rain = 0
KOD1 161645Z 35009KT 10/09 A2993 RMK A01 T01030091  RH  092%=      5-min Rain = 0
KOD1 161646Z 34009KT 10/09 A2993 RMK A01 T01030091  RH  092%=      5-min Rain = 0
KOD1 161647Z 34009KT 10/09 A2993 RMK A01 T01040092  RH  092%=      5-min Rain = 0
KOD1 161648Z 34008KT 10/09 A2993 RMK A01 T01040092  RH  092%=      5-min Rain = 0
KOD1 161649Z 34008KT 11/09 A2993 RMK A01 T01050093  RH  093%=      5-min Rain = 0
KOD1 161650Z 34009KT 11/09 A2993 RMK A01 T01050093  RH  092%=      5-min Rain = 0
KOD1 161651Z 33012KT 10/09 A2993 RMK A01 T01040092  RH  092%=      5-min Rain = 0
KOD1 161652Z 34010KT 10/09 A2993 RMK A01 T01040092  RH  092%=      5-min Rain = 0
KOD1 161653Z 34011KT 10/09 A2993 RMK A01 T01040091  RH  092%=      5-min Rain = 0
KOD1 161654Z 34008KT 10/09 A2993 RMK A01 T01040092  RH  092%=      5-min Rain = 0
KOD1 161655Z 33010KT 11/09 A2993 RMK A01 T01060094  RH  092%=      5-min Rain = 0
KOD1 161656Z 33011KT 11/09 A2993 RMK A01 T01060093  RH  092%=      5-min Rain = 0
KOD1 161657Z 33009KT 11/09 A2993 RMK A01 T01070094  RH  092%=      5-min Rain = 0
KOD1 161658Z 33009KT 11/10 A2993 RMK A01 T01080095  RH  092%=      5-min Rain = 0
KOD1 161659Z 33010KT 11/09 A2993 RMK A01 T01070093  RH  091%=      5-min Rain = 0
KOD1 161700Z 34009KT 11/09 A2993 RMK A01 T01080094  RH  091%=      5-min Rain = 0
KOD1 161701Z 34012KT 11/09 A2993 RMK A01 T01080093  RH  091%=      5-min Rain = 0
KOD1 161702Z 34011KT 11/09 A2993 RMK A01 T01080093  RH  091%=      5-min Rain = 0
KOD1 161703Z 34010KT 11/09 A2993 RMK A01 T01080093  RH  090%=      5-min Rain = 0
KOD1 161704Z 34010KT 11/09 A2993 RMK A01 T01090094  RH  091%=      5-min Rain = 0
KOD1 161705Z 34010KT 11/09 A2993 RMK A01 T01090094  RH  090%=      5-min Rain = 0
KOD1 161706Z 34010KT 11/10 A2993 RMK A01 T01090095  RH  091%=      5-min Rain = 0
KOD1 161707Z 34011KT 11/09 A2993 RMK A01 T01090094  RH  090%=      5-min Rain = 0
KOD1 161708Z 34010KT 11/09 A2993 RMK A01 T01090094  RH  090%=      5-min Rain = 0
KOD1 161709Z 34011KT 11/10 A2993 RMK A01 T01090095  RH  091%=      5-min Rain = 0
KOD1 161710Z 34010KT 11/09 A2993 RMK A01 T01090093  RH  090%=      5-min Rain = 0
KOD1 161711Z 34012KT 11/09 A2993 RMK A01 T01080093  RH  090%=      5-min Rain = 0
KOD1 161712Z 34012KT 11/09 A2993 RMK A01 T01080093  RH  090%=      5-min Rain = 0
KOD1 161713Z 34011KT 11/09 A2993 RMK A01 T01100094  RH  090%=      5-min Rain = 0
KOD1 161714Z 34012KT 11/09 A2993 RMK A01 T01100093  RH  090%=      5-min Rain = 0
KOD1 161715Z 34013KT 11/09 A2993 RMK A01 T01090093  RH  090%=      5-min Rain = 0
KOD1 161716Z 33012KT 11/09 A2993 RMK A01 T01100093  RH  090%=      5-min Rain = 0
KOD1 161717Z 33012KT 11/10 A2993 RMK A01 T01110096  RH  090%=      5-min Rain = 0
KOD1 161718Z 33013KT 11/10 A2993 RMK A01 T01120095  RH  089%=      5-min Rain = 0
KOD1 161719Z 33011KT 11/09 A2993 RMK A01 T01120094  RH  089%=      5-min Rain = 0
KOD1 161720Z 33010KT 11/10 A2993 RMK A01 T01120095  RH  089%=      5-min Rain = 0
KOD1 161721Z 33011KT 11/10 A2993 RMK A01 T01120095  RH  089%=      5-min Rain = 0
KOD1 161722Z 34011KT 11/10 A2993 RMK A01 T01130095  RH  089%=      5-min Rain = 0
KOD1 161723Z 34012KT 11/09 A2993 RMK A01 T01120093  RH  088%=      5-min Rain = 0
KOD1 161724Z 34011KT 11/09 A2993 RMK A01 T01110093  RH  088%=      5-min Rain = 0
KOD1 161725Z 34010KT 11/09 A2993 RMK A01 T01110092  RH  088%=      5-min Rain = 0
KOD1 161726Z 35009KT 11/09 A2993 RMK A01 T01110093  RH  089%=      5-min Rain = 0
KOD1 161727Z 35011KT 11/09 A2993 RMK A01 T01120094  RH  089%=      5-min Rain = 0
KOD1 161728Z 34009KT 11/09 A2993 RMK A01 T01110093  RH  089%=      5-min Rain = 0
KOD1 161729Z 33009KT 11/10 A2993 RMK A01 T01120095  RH  089%=      5-min Rain = 0
KOD1 161730Z 33010KT 11/09 A2993 RMK A01 T01110093  RH  089%=      5-min Rain = 0
KOD1 161731Z 33009KT 11/09 A2993 RMK A01 T01110093  RH  089%=      5-min Rain = 0
KOD1 161732Z 33009KT 11/09 A2993 RMK A01 T01110094  RH  089%=      5-min Rain = 0
KOD1 161733Z 33010KT 11/09 A2993 RMK A01 T01110094  RH  089%=      5-min Rain = 0
KOD1 161734Z 33009KT 11/10 A2994 RMK A01 T01130097  RH  090%=      5-min Rain = 0
KOD1 161735Z 34011KT 11/10 A2994 RMK A01 T01140096  RH  089%=      5-min Rain = 0
KOD1 161736Z 33011KT 11/10 A2994 RMK A01 T01130095  RH  089%=      5-min Rain = 0
KOD1 161737Z 33011KT 11/10 A2994 RMK A01 T01130095  RH  089%=      5-min Rain = 0
KOD1 161738Z 33011KT 11/10 A2994 RMK A01 T01130095  RH  088%=      5-min Rain = 0
KOD1 161739Z 33012KT 11/10 A2994 RMK A01 T01140095  RH  088%=      5-min Rain = 0
KOD1 161740Z 33013KT 11/09 A2994 RMK A01 T01120093  RH  088%=      5-min Rain = 0
KOD1 161741Z 32012KT 11/09 A2994 RMK A01 T01120092  RH  088%=      5-min Rain = 0
KOD1 161742Z 34011KT 11/09 A2994 RMK A01 T01110092  RH  088%=      5-min Rain = 0
KOD1 161743Z 34013KT 11/09 A2994 RMK A01 T01110091  RH  088%=      5-min Rain = 0
KOD1 161744Z 34014KT 11/09 A2994 RMK A01 T01110092  RH  088%=      5-min Rain = 0
KOD1 161745Z 33013KT 11/09 A2994 RMK A01 T01110092  RH  088%=      5-min Rain = 0
KOD1 161746Z 33012KT 11/09 A2994 RMK A01 T01100091  RH  088%=      5-min Rain = 0
KOD1 161747Z 34011KT 11/09 A2994 RMK A01 T01110091  RH  088%=      5-min Rain = 0
KOD1 161748Z 33012KT 11/09 A2994 RMK A01 T01120093  RH  088%=      5-min Rain = 0
KOD1 161749Z 33013KT 11/09 A2994 RMK A01 T01110092  RH  088%=      5-min Rain = 0
KOD1 161750Z 33012KT 11/09 A2994 RMK A01 T01120093  RH  088%=      5-min Rain = 0
KOD1 161751Z 32013KT 11/09 A2995 RMK A01 T01130093  RH  088%=      5-min Rain = 0
KOD1 161752Z 33012KT 11/09 A2995 RMK A01 T01130093  RH  088%=      5-min Rain = 0
KOD1 161753Z 33011KT 11/09 A2994 RMK A01 T01130092  RH  087%=      5-min Rain = 0
KOD1 161754Z 34011KT 11/09 A2995 RMK A01 T01130092  RH  087%=      5-min Rain = 0
KOD1 161755Z 34011KT 11/09 A2994 RMK A01 T01130092  RH  087%=      5-min Rain = 0
KOD1 161756Z 34010KT 11/09 A2995 RMK A01 T01130093  RH  087%=      5-min Rain = 0
KOD1 161757Z 33010KT 12/10 A2994 RMK A01 T01150095  RH  088%=      5-min Rain = 0
KOD1 161758Z 33009KT 12/10 A2994 RMK A01 T01160096  RH  088%=      5-min Rain = 0
KOD1 161759Z 33011KT 12/10 A2994 RMK A01 T01170097  RH  088%=      5-min Rain = 0
KOD1 161800Z 33013KT 12/10 A2994 RMK A01 T01170095  RH  086%=      5-min Rain = 0
KOD1 161801Z 33014KT 12/09 A2994 RMK A01 T01160094  RH  086%=      5-min Rain = 0
KOD1 161802Z 32012KT 12/10 A2994 RMK A01 T01180095  RH  086%=      5-min Rain = 0
KOD1 161803Z 33011KT 12/10 A2994 RMK A01 T01200098  RH  086%=      5-min Rain = 0
KOD1 161804Z 33012KT 12/10 A2994 RMK A01 T01210097  RH  086%=      5-min Rain = 0
KOD1 161805Z 33013KT 12/10 A2994 RMK A01 T01200095  RH  085%=      5-min Rain = 0
KOD1 161806Z 34012KT 12/09 A2994 RMK A01 T01180092  RH  084%=      5-min Rain = 0
KOD1 161807Z 34014KT 12/09 A2994 RMK A01 T01180092  RH  084%=      5-min Rain = 0
KOD1 161808Z 34012KT 12/09 A2994 RMK A01 T01160090  RH  084%=      5-min Rain = 0
KOD1 161809Z 35012KT 12/09 A2994 RMK A01 T01160092  RH  085%=      5-min Rain = 0
KOD1 161810Z 34012KT 12/09 A2994 RMK A01 T01160093  RH  086%=      5-min Rain = 0
KOD1 161811Z 34013KT 12/09 A2994 RMK A01 T01160092  RH  085%=      5-min Rain = 0
KOD1 161812Z 33009KT 12/09 A2994 RMK A01 T01160093  RH  086%=      5-min Rain = 0
KOD1 161813Z 33012KT 12/09 A2994 RMK A01 T01170094  RH  086%=      5-min Rain = 0
KOD1 161814Z 34012KT 12/09 A2994 RMK A01 T01170093  RH  085%=      5-min Rain = 0
KOD1 161815Z 35013KT 12/09 A2994 RMK A01 T01150091  RH  085%=      5-min Rain = 0
KOD1 161816Z 34013KT 12/09 A2994 RMK A01 T01160091  RH  085%=      5-min Rain = 0
KOD1 161817Z 35012KT 12/09 A2994 RMK A01 T01160091  RH  085%=      5-min Rain = 0
KOD1 161818Z 34010KT 12/09 A2994 RMK A01 T01170093  RH  085%=      5-min Rain = 0
KOD1 161819Z 35010KT 12/10 A2994 RMK A01 T01190095  RH  085%=      5-min Rain = 0
KOD1 161820Z 35013KT 12/10 A2994 RMK A01 T01210097  RH  085%=      5-min Rain = 0
KOD1 161821Z 34014KT 12/09 A2994 RMK A01 T01200093  RH  084%=      5-min Rain = 0
KOD1 161822Z 34014KT 12/09 A2994 RMK A01 T01190091  RH  083%=      5-min Rain = 0
KOD1 161823Z 33013KT 12/09 A2994 RMK A01 T01200092  RH  083%=      5-min Rain = 0
KOD1 161824Z 34012KT 12/09 A2994 RMK A01 T01210092  RH  082%=      5-min Rain = 0
KOD1 161825Z 34009KT 12/09 A2994 RMK A01 T01220093  RH  083%=      5-min Rain = 0
KOD1 161826Z 34009KT 12/10 A2994 RMK A01 T01230096  RH  083%=      5-min Rain = 0
KOD1 161827Z 33008KT 13/10 A2994 RMK A01 T01250097  RH  083%=      5-min Rain = 0
KOD1 161828Z 32012KT 13/10 A2994 RMK A01 T01260097  RH  083%=      5-min Rain = 0
KOD1 161829Z 33012KT 13/10 A2994 RMK A01 T01250095  RH  082%=      5-min Rain = 0
KOD1 161830Z 33012G17KT 13/09 A2994 RMK A01 T01250094  RH  082%=      5-min Rain = 0
KOD1 161831Z 34013KT 12/09 A2994 RMK A01 T01240093  RH  082%=      5-min Rain = 0
KOD1 161832Z 34011KT 12/09 A2994 RMK A01 T01220092  RH  082%=      5-min Rain = 0
KOD1 161833Z 34013KT 12/09 A2994 RMK A01 T01230094  RH  083%=      5-min Rain = 0
KOD1 161834Z 34013KT 12/09 A2994 RMK A01 T01220093  RH  082%=      5-min Rain = 0
KOD1 161835Z 34013KT 12/09 A2994 RMK A01 T01210091  RH  082%=      5-min Rain = 0
KOD1 161836Z 34015KT 12/09 A2994 RMK A01 T01210090  RH  082%=      5-min Rain = 0
KOD1 161837Z 34011KT 12/09 A2994 RMK A01 T01210092  RH  082%=      5-min Rain = 0
KOD1 161838Z 34015KT 12/09 A2994 RMK A01 T01210091  RH  082%=      5-min Rain = 0
KOD1 161839Z 34014KT 12/09 A2994 RMK A01 T01210091  RH  081%=      5-min Rain = 0
KOD1 161840Z 35015KT 12/09 A2994 RMK A01 T01220091  RH  081%=      5-min Rain = 0
KOD1 161841Z 34014KT 12/09 A2994 RMK A01 T01220090  RH  081%=      5-min Rain = 0
KOD1 161842Z 33016KT 12/09 A2994 RMK A01 T01230092  RH  081%=      5-min Rain = 0
KOD1 161843Z 33015KT 12/09 A2994 RMK A01 T01230091  RH  081%=      5-min Rain = 0
KOD1 161844Z 33015KT 12/09 A2994 RMK A01 T01240091  RH  081%=      5-min Rain = 0
KOD1 161845Z 33014KT 12/09 A2994 RMK A01 T01230091  RH  081%=      5-min Rain = 0
KOD1 161846Z 33014KT 12/09 A2994 RMK A01 T01230091  RH  081%=      5-min Rain = 0
KOD1 161847Z 33014KT 12/09 A2994 RMK A01 T01230091  RH  081%=      5-min Rain = 0
KOD1 161848Z 34012KT 12/09 A2994 RMK A01 T01240092  RH  081%=      5-min Rain = 0
KOD1 161849Z 35012KT 12/09 A2994 RMK A01 T01240093  RH  081%=      5-min Rain = 0
KOD1 161850Z 34012KT 12/09 A2994 RMK A01 T01240093  RH  082%=      5-min Rain = 0
KOD1 161851Z 34011KT 12/09 A2994 RMK A01 T01240094  RH  082%=      5-min Rain = 0
KOD1 161852Z 34011KT 12/09 A2994 RMK A01 T01240094  RH  082%=      5-min Rain = 0
KOD1 161853Z 35011KT 12/10 A2994 RMK A01 T01240095  RH  083%=      5-min Rain = 0
KOD1 161854Z 35014KT 12/09 A2994 RMK A01 T01230094  RH  082%=      5-min Rain = 0
KOD1 161855Z 34012KT 12/09 A2994 RMK A01 T01220093  RH  082%=      5-min Rain = 0
KOD1 161856Z 35012KT 12/10 A2994 RMK A01 T01230095  RH  083%=      5-min Rain = 0
KOD1 161857Z 35012KT 12/10 A2994 RMK A01 T01240095  RH  083%=      5-min Rain = 0
KOD1 161858Z 35013KT 12/09 A2994 RMK A01 T01230093  RH  082%=      5-min Rain = 0
KOD1 161859Z 35016KT 12/09 A2994 RMK A01 T01220092  RH  082%=      5-min Rain = 0
KOD1 161900Z 35013KT 12/09 A2994 RMK A01 T01210092  RH  082%=      5-min Rain = 0
KOD1 161901Z 35013KT 12/10 A2994 RMK A01 T01220095  RH  083%=      5-min Rain = 0
KOD1 161902Z 35015KT 12/09 A2994 RMK A01 T01230093  RH  082%=      5-min Rain = 0
KOD1 161903Z 35015KT 12/09 A2994 RMK A01 T01220092  RH  082%=      5-min Rain = 0
KOD1 161904Z 35013KT 12/09 A2994 RMK A01 T01220092  RH  082%=      5-min Rain = 0
KOD1 161905Z 35015KT 12/09 A2994 RMK A01 T01220094  RH  083%=      5-min Rain = 0
KOD1 161906Z 36013KT 12/09 A2994 RMK A01 T01210093  RH  083%=      5-min Rain = 0
KOD1 161907Z 00011KT 12/09 A2994 RMK A01 T01210094  RH  083%=      5-min Rain = 0
KOD1 161908Z 36014KT 12/10 A2994 RMK A01 T01220095  RH  084%=      5-min Rain = 0
KOD1 161909Z 35013KT 12/10 A2994 RMK A01 T01220095  RH  084%=      5-min Rain = 0
KOD1 161910Z 00014KT 12/09 A2994 RMK A01 T01220094  RH  083%=      5-min Rain = 0
KOD1 161911Z 36015KT 12/09 A2994 RMK A01 T01220093  RH  083%=      5-min Rain = 0
KOD1 161912Z 35015KT 12/09 A2994 RMK A01 T01210092  RH  082%=      5-min Rain = 0
KOD1 161913Z 35014KT 12/09 A2994 RMK A01 T01210092  RH  083%=      5-min Rain = 0
KOD1 161914Z 35013KT 12/09 A2994 RMK A01 T01220094  RH  083%=      5-min Rain = 0
KOD1 161915Z 36013KT 12/10 A2994 RMK A01 T01230095  RH  083%=      5-min Rain = 0
KOD1 161916Z 35013KT 12/09 A2994 RMK A01 T01230093  RH  082%=      5-min Rain = 0
KOD1 161917Z 36013KT 12/10 A2994 RMK A01 T01240095  RH  083%=      5-min Rain = 0
KOD1 161918Z 35014KT 12/09 A2994 RMK A01 T01240093  RH  082%=      5-min Rain = 0
KOD1 161919Z 34011KT 12/09 A2994 RMK A01 T01240094  RH  082%=      5-min Rain = 0
KOD1 161920Z 34013KT 12/09 A2994 RMK A01 T01240093  RH  082%=      5-min Rain = 0
KOD1 161921Z 35012KT 12/09 A2994 RMK A01 T01230092  RH  081%=      5-min Rain = 0
KOD1 161922Z 36012KT 12/10 A2994 RMK A01 T01240095  RH  082%=      5-min Rain = 0
KOD1 161923Z 35014KT 12/09 A2994 RMK A01 T01240094  RH  082%=      5-min Rain = 0
KOD1 161924Z 34013KT 12/09 A2994 RMK A01 T01230091  RH  081%=      5-min Rain = 0
KOD1 161925Z 35014KT 12/09 A2994 RMK A01 T01220090  RH  081%=      5-min Rain = 0
KOD1 161926Z 35014KT 12/09 A2994 RMK A01 T01210089  RH  081%=      5-min Rain = 0
KOD1 161927Z 35012KT 12/09 A2994 RMK A01 T01210090  RH  081%=      5-min Rain = 0
KOD1 161928Z 35013KT 12/09 A2994 RMK A01 T01210091  RH  082%=      5-min Rain = 0
KOD1 161929Z 35013KT 12/09 A2994 RMK A01 T01220093  RH  082%=      5-min Rain = 0
KOD1 161930Z 35014KT 12/09 A2994 RMK A01 T01220091  RH  081%=      5-min Rain = 0
KOD1 161931Z 36016KT 12/09 A2995 RMK A01 T01210089  RH  081%=      5-min Rain = 0
KOD1 161932Z 35016KT 12/09 A2995 RMK A01 T01220089  RH  081%=      5-min Rain = 0
KOD1 161933Z 35015KT 12/09 A2995 RMK A01 T01220090  RH  080%=      5-min Rain = 0
KOD1 161934Z 35013KT 12/09 A2995 RMK A01 T01230090  RH  080%=      5-min Rain = 0
KOD1 161935Z 34014KT 12/09 A2995 RMK A01 T01230088  RH  079%=      5-min Rain = 0
KOD1 161936Z 35013G18KT 12/09 A2995 RMK A01 T01240089  RH  079%=      5-min Rain = 0
KOD1 161937Z 35015KT 12/09 A2995 RMK A01 T01240088  RH  078%=      5-min Rain = 0
KOD1 161938Z 35016KT 13/09 A2995 RMK A01 T01250089  RH  078%=      5-min Rain = 0
KOD1 161939Z 35015KT 13/09 A2995 RMK A01 T01250088  RH  078%=      5-min Rain = 0
KOD1 161940Z 35013KT 13/09 A2995 RMK A01 T01260089  RH  078%=      5-min Rain = 0
KOD1 161941Z 34014KT 13/09 A2995 RMK A01 T01260088  RH  077%=      5-min Rain = 0
KOD1 161942Z 35015KT 13/09 A2995 RMK A01 T01260086  RH  077%=      5-min Rain = 0
KOD1 161943Z 35013KT 13/09 A2995 RMK A01 T01260088  RH  078%=      5-min Rain = 0
KOD1 161944Z 36014KT 13/09 A2995 RMK A01 T01260090  RH  078%=      5-min Rain = 0
KOD1 161945Z 00012KT 13/09 A2995 RMK A01 T01280091  RH  078%=      5-min Rain = 0
KOD1 161946Z 36014KT 13/09 A2995 RMK A01 T01280091  RH  078%=      5-min Rain = 0
KOD1 161947Z 35013KT 13/09 A2995 RMK A01 T01280091  RH  078%=      5-min Rain = 0
KOD1 161948Z 35011KT 13/09 A2995 RMK A01 T01290092  RH  078%=      5-min Rain = 0
KOD1 161949Z 35013G19KT 13/09 A2995 RMK A01 T01310094  RH  078%=      5-min Rain = 0
KOD1 161950Z 35016KT 13/09 A2995 RMK A01 T01290086  RH  075%=      5-min Rain = 0
KOD1 161951Z 36018KT 13/08 A2995 RMK A01 T01270084  RH  075%=      5-min Rain = 0
KOD1 161952Z 36016KT 13/08 A2995 RMK A01 T01260084  RH  076%=      5-min Rain = 0
KOD1 161953Z 35017KT 13/09 A2995 RMK A01 T01260085  RH  076%=      5-min Rain = 0
KOD1 161954Z 35017KT 12/08 A2995 RMK A01 T01240084  RH  076%=      5-min Rain = 0
KOD1 161955Z 35016KT 12/09 A2995 RMK A01 T01240085  RH  077%=      5-min Rain = 0
KOD1 161956Z 35014KT 12/09 A2995 RMK A01 T01240086  RH  077%=      5-min Rain = 0
KOD1 161957Z 35015KT 13/09 A2995 RMK A01 T01250087  RH  078%=      5-min Rain = 0
KOD1 161958Z 35017KT 12/09 A2995 RMK A01 T01240086  RH  077%=      5-min Rain = 0
KOD1 161959Z 35017KT 12/09 A2995 RMK A01 T01230085  RH  078%=      5-min Rain = 0
KOD1 162000Z 35015KT 12/09 A2995 RMK A01 T01230085  RH  078%=      5-min Rain = 0
KOD1 162001Z 35016KT 12/09 A2995 RMK A01 T01240088  RH  078%=      5-min Rain = 0
KOD1 162002Z 35015KT 12/09 A2995 RMK A01 T01240087  RH  078%=      5-min Rain = 0
KOD1 162003Z 00016KT 13/09 A2995 RMK A01 T01250088  RH  078%=      5-min Rain = 0
KOD1 162004Z 36016KT 13/09 A2995 RMK A01 T01260087  RH  077%=      5-min Rain = 0
KOD1 162005Z 35015KT 13/09 A2995 RMK A01 T01260087  RH  077%=      5-min Rain = 0
KOD1 162006Z 35016KT 13/09 A2995 RMK A01 T01270087  RH  077%=      5-min Rain = 0
KOD1 162007Z 36016KT 13/09 A2995 RMK A01 T01280090  RH  078%=      5-min Rain = 0
KOD1 162008Z 00014KT 13/09 A2995 RMK A01 T01290090  RH  077%=      5-min Rain = 0
KOD1 162009Z 01014KT 13/09 A2995 RMK A01 T01310093  RH  077%=      5-min Rain = 0
KOD1 162010Z 00015KT 13/09 A2995 RMK A01 T01310090  RH  076%=      5-min Rain = 0
KOD1 162011Z 36013G18KT 13/09 A2995 RMK A01 T01300089  RH  076%=      5-min Rain = 0
KOD1 162012Z 36016KT 13/09 A2995 RMK A01 T01310090  RH  076%=      5-min Rain = 0
KOD1 162013Z 36015KT 13/09 A2995 RMK A01 T01300086  RH  075%=      5-min Rain = 0
KOD1 162014Z 36014KT 13/09 A2995 RMK A01 T01300088  RH  075%=      5-min Rain = 0
KOD1 162015Z 36016KT 13/09 A2995 RMK A01 T01300086  RH  074%=      5-min Rain = 0
KOD1 162016Z 00015KT 13/09 A2995 RMK A01 T01300085  RH  074%=      5-min Rain = 0
KOD1 162017Z 36016KT 13/09 A2995 RMK A01 T01300085  RH  074%=      5-min Rain = 0
KOD1 162018Z 00017KT 13/09 A2995 RMK A01 T01310086  RH  074%=      5-min Rain = 0
KOD1 162019Z 35017KT 13/09 A2995 RMK A01 T01300085  RH  074%=      5-min Rain = 0
KOD1 162020Z 35016KT 13/08 A2995 RMK A01 T01300084  RH  074%=      5-min Rain = 0
KOD1 162021Z 35017KT 13/08 A2995 RMK A01 T01280082  RH  073%=      5-min Rain = 0
KOD1 162022Z 35016KT 13/08 A2995 RMK A01 T01280082  RH  073%=      5-min Rain = 0
KOD1 162023Z 35016KT 13/08 A2995 RMK A01 T01280082  RH  074%=      5-min Rain = 0
KOD1 162024Z 35015KT 13/08 A2995 RMK A01 T01280082  RH  074%=      5-min Rain = 0
KOD1 162025Z 36016KT 13/08 A2995 RMK A01 T01270083  RH  074%=      5-min Rain = 0
KOD1 162026Z 35016KT 13/08 A2995 RMK A01 T01270083  RH  075%=      5-min Rain = 0
KOD1 162027Z 35017KT 13/08 A2995 RMK A01 T01270083  RH  074%=      5-min Rain = 0
KOD1 162028Z 35014KT 13/08 A2995 RMK A01 T01270083  RH  075%=      5-min Rain = 0
KOD1 162029Z 35016KT 13/09 A2995 RMK A01 T01270085  RH  075%=      5-min Rain = 0
KOD1 162030Z 35014KT 13/09 A2995 RMK A01 T01260085  RH  076%=      5-min Rain = 0
KOD1 162031Z 35013G18KT 13/09 A2995 RMK A01 T01270086  RH  076%=      5-min Rain = 0
KOD1 162032Z 35013KT 13/09 A2995 RMK A01 T01270087  RH  076%=      5-min Rain = 0
KOD1 162033Z 36015KT 13/09 A2995 RMK A01 T01270085  RH  076%=      5-min Rain = 0
KOD1 162034Z 35014KT 13/09 A2995 RMK A01 T01280086  RH  075%=      5-min Rain = 0
KOD1 162035Z 35012KT 13/09 A2995 RMK A01 T01290087  RH  075%=      5-min Rain = 0
KOD1 162036Z 35011G16KT 13/09 A2995 RMK A01 T01320091  RH  076%=      5-min Rain = 0
KOD1 162037Z 34012KT 13/09 A2995 RMK A01 T01330089  RH  075%=      5-min Rain = 0
KOD1 162038Z 34015KT 13/09 A2995 RMK A01 T01330086  RH  073%=      5-min Rain = 0
KOD1 162039Z 34012KT 13/09 A2995 RMK A01 T01330086  RH  074%=      5-min Rain = 0
KOD1 162040Z 34014KT 13/09 A2995 RMK A01 T01330087  RH  074%=      5-min Rain = 0
KOD1 162041Z 34015KT 13/08 A2995 RMK A01 T01310083  RH  073%=      5-min Rain = 0
KOD1 162042Z 34015KT 13/08 A2995 RMK A01 T01290082  RH  073%=      5-min Rain = 0
KOD1 162043Z 35016KT 13/08 A2995 RMK A01 T01290082  RH  073%=      5-min Rain = 0
KOD1 162044Z 35014KT 13/08 A2995 RMK A01 T01280083  RH  074%=      5-min Rain = 0
KOD1 162045Z 35012KT 13/09 A2995 RMK A01 T01280085  RH  075%=      5-min Rain = 0
KOD1 162046Z 35014KT 13/09 A2995 RMK A01 T01280086  RH  076%=      5-min Rain = 0
KOD1 162047Z 36013G20KT 13/09 A2995 RMK A01 T01280088  RH  076%=      5-min Rain = 0
KOD1 162048Z 35015KT 13/09 A2995 RMK A01 T01280085  RH  075%=      5-min Rain = 0
KOD1 162049Z 35015G22KT 13/09 A2995 RMK A01 T01290086  RH  075%=      5-min Rain = 0
KOD1 162050Z 36019KT 13/08 A2995 RMK A01 T01300083  RH  073%=      5-min Rain = 0
KOD1 162051Z 35017KT 13/08 A2995 RMK A01 T01300082  RH  073%=      5-min Rain = 0
KOD1 162052Z 35015KT 13/08 A2995 RMK A01 T01310083  RH  073%=      5-min Rain = 0
KOD1 162053Z 35014KT 13/08 A2995 RMK A01 T01320084  RH  073%=      5-min Rain = 0
KOD1 162054Z 35012KT 13/09 A2995 RMK A01 T01320085  RH  073%=      5-min Rain = 0
KOD1 162055Z 36015KT 13/09 A2995 RMK A01 T01330086  RH  073%=      5-min Rain = 0
KOD1 162056Z 00017KT 13/08 A2995 RMK A01 T01330083  RH  072%=      5-min Rain = 0
KOD1 162057Z 00016KT 13/08 A2995 RMK A01 T01330081  RH  071%=      5-min Rain = 0
KOD1 162058Z 35019KT 13/08 A2995 RMK A01 T01330079  RH  070%=      5-min Rain = 0
KOD1 162059Z 36017KT 14/08 A2995 RMK A01 T01350082  RH  070%=      5-min Rain = 0
KOD1 162100Z 35018KT 14/08 A2995 RMK A01 T01360080  RH  069%=      5-min Rain = 0
KOD1 162101Z 35018KT 14/08 A2995 RMK A01 T01360078  RH  068%=      5-min Rain = 0
KOD1 162102Z 35019KT 14/08 A2995 RMK A01 T01360078  RH  068%=      5-min Rain = 0
KOD1 162103Z 34019KT 14/08 A2995 RMK A01 T01360076  RH  067%=      5-min Rain = 0
KOD1 162104Z 34018KT 14/08 A2995 RMK A01 T01360076  RH  067%=      5-min Rain = 0
KOD1 162105Z 35013G18KT 14/08 A2995 RMK A01 T01380080  RH  068%=      5-min Rain = 0
KOD1 162106Z 35019KT 14/08 A2995 RMK A01 T01390082  RH  069%=      5-min Rain = 0
KOD1 162107Z 36018G25KT 14/08 A2995 RMK A01 T01360078  RH  068%=      5-min Rain = 0
KOD1 162108Z 35018KT 13/08 A2995 RMK A01 T01340080  RH  070%=      5-min Rain = 0
KOD1 162109Z 36019KT 13/08 A2995 RMK A01 T01330079  RH  070%=      5-min Rain = 0
KOD1 162110Z 36017G23KT 13/08 A2995 RMK A01 T01320081  RH  071%=      5-min Rain = 0
KOD1 162111Z 36020KT 13/08 A2995 RMK A01 T01320079  RH  070%=      5-min Rain = 0
KOD1 162112Z 36018KT 13/08 A2995 RMK A01 T01320079  RH  070%=      5-min Rain = 0
KOD1 162113Z 36016KT 13/08 A2995 RMK A01 T01340081  RH  070%=      5-min Rain = 0
KOD1 162114Z 35019KT 14/08 A2995 RMK A01 T01350079  RH  069%=      5-min Rain = 0
KOD1 162115Z 35020KT 14/08 A2995 RMK A01 T01360078  RH  068%=      5-min Rain = 0
KOD1 162116Z 34020G26KT 14/08 A2995 RMK A01 T01360075  RH  066%=      5-min Rain = 0
KOD1 162117Z 34019KT 14/08 A2994 RMK A01 T01390075  RH  065%=      5-min Rain = 0
KOD1 162118Z 35019KT 14/08 A2995 RMK A01 T01410076  RH  065%=      5-min Rain = 0
KOD1 162119Z 35019KT 14/08 A2994 RMK A01 T01420075  RH  064%=      5-min Rain = 0
KOD1 162120Z 35019KT 14/08 A2994 RMK A01 T01430076  RH  064%=      5-min Rain = 0
KOD1 162121Z 36019KT 14/08 A2994 RMK A01 T01420075  RH  064%=      5-min Rain = 0
KOD1 162122Z 36022KT 14/07 A2995 RMK A01 T01390074  RH  065%=      5-min Rain = 0
KOD1 162123Z 35020KT 14/07 A2995 RMK A01 T01370074  RH  066%=      5-min Rain = 0
KOD1 162124Z 35018KT 14/08 A2995 RMK A01 T01360076  RH  067%=      5-min Rain = 0
KOD1 162125Z 35018KT 14/08 A2994 RMK A01 T01360078  RH  068%=      5-min Rain = 0
KOD1 162126Z 35018G25KT 13/08 A2995 RMK A01 T01340076  RH  068%=      5-min Rain = 0
KOD1 162127Z 35021G26KT 13/07 A2995 RMK A01 T01330074  RH  067%=      5-min Rain = 0
KOD1 162128Z 35020KT 13/07 A2995 RMK A01 T01330070  RH  066%=      5-min Rain = 0
KOD1 162129Z 35018KT 13/07 A2995 RMK A01 T01320072  RH  067%=      5-min Rain = 0
KOD1 162130Z 34018G23KT 13/07 A2995 RMK A01 T01320073  RH  067%=      5-min Rain = 0
KOD1 162131Z 34019KT 13/07 A2995 RMK A01 T01320074  RH  068%=      5-min Rain = 0
KOD1 162132Z 34016KT 13/08 A2995 RMK A01 T01320078  RH  070%=      5-min Rain = 0
KOD1 162133Z 33019KT 13/08 A2995 RMK A01 T01330080  RH  070%=      5-min Rain = 0
KOD1 162134Z 32021KT 13/08 A2995 RMK A01 T01320078  RH  070%=      5-min Rain = 0
KOD1 162135Z 33016G21KT 13/08 A2995 RMK A01 T01320079  RH  070%=      5-min Rain = 0
KOD1 162136Z 33016KT 13/08 A2995 RMK A01 T01330081  RH  071%=      5-min Rain = 0
KOD1 162137Z 32017KT 13/08 A2995 RMK A01 T01330081  RH  071%=      5-min Rain = 0
KOD1 162138Z 33016KT 13/08 A2995 RMK A01 T01320080  RH  070%=      5-min Rain = 0
KOD1 162139Z 33017KT 13/08 A2995 RMK A01 T01320080  RH  070%=      5-min Rain = 0
KOD1 162140Z 33016KT 13/08 A2995 RMK A01 T01320080  RH  071%=      5-min Rain = 0
KOD1 162141Z 33015KT 13/08 A2995 RMK A01 T01320081  RH  071%=      5-min Rain = 0
KOD1 162142Z 33014KT 13/08 A2995 RMK A01 T01320081  RH  071%=      5-min Rain = 0
KOD1 162143Z 34015KT 13/08 A2995 RMK A01 T01320081  RH  071%=      5-min Rain = 0
KOD1 162144Z 34018KT 13/08 A2995 RMK A01 T01310076  RH  069%=      5-min Rain = 0
KOD1 162145Z 34018KT 13/08 A2995 RMK A01 T01300076  RH  069%=      5-min Rain = 0
KOD1 162146Z 33015KT 13/08 A2995 RMK A01 T01300076  RH  069%=      5-min Rain = 0
KOD1 162147Z 33018KT 13/08 A2995 RMK A01 T01320079  RH  070%=      5-min Rain = 0
KOD1 162148Z 33016KT 13/08 A2995 RMK A01 T01330079  RH  070%=      5-min Rain = 0
KOD1 162149Z 34015G22KT 13/08 A2995 RMK A01 T01330079  RH  070%=      5-min Rain = 0
KOD1 162150Z 33017G22KT 13/08 A2995 RMK A01 T01340078  RH  069%=      5-min Rain = 0
KOD1 162151Z 34016G21KT 14/08 A2995 RMK A01 T01350079  RH  069%=      5-min Rain = 0
KOD1 162152Z 34017KT 13/08 A2995 RMK A01 T01340077  RH  069%=      5-min Rain = 0
KOD1 162153Z 34016KT 13/08 A2995 RMK A01 T01330076  RH  068%=      5-min Rain = 0
KOD1 162154Z 34018KT 13/08 A2995 RMK A01 T01330075  RH  068%=      5-min Rain = 0
KOD1 162155Z 34017G23KT 13/08 A2995 RMK A01 T01320076  RH  069%=      5-min Rain = 0
KOD1 162156Z 34014KT 13/08 A2995 RMK A01 T01320075  RH  069%=      5-min Rain = 0
KOD1 162157Z 34016KT 13/08 A2996 RMK A01 T01320077  RH  069%=      5-min Rain = 0
KOD1 162158Z 34018KT 13/08 A2996 RMK A01 T01320077  RH  069%=      5-min Rain = 0
KOD1 162159Z 34019KT 13/07 A2996 RMK A01 T01310073  RH  068%=      5-min Rain = 0
KOD1 162200Z 34016KT 13/08 A2996 RMK A01 T01310075  RH  069%=      5-min Rain = 0
KOD1 162201Z 34018KT 13/08 A2996 RMK A01 T01310075  RH  069%=      5-min Rain = 0
KOD1 162202Z 34016KT 13/07 A2996 RMK A01 T01300074  RH  069%=      5-min Rain = 0
KOD1 162203Z 34016KT 13/07 A2996 RMK A01 T01300074  RH  069%=      5-min Rain = 0
KOD1 162204Z 35017KT 13/08 A2996 RMK A01 T01300075  RH  069%=      5-min Rain = 0
KOD1 162205Z 34018KT 13/07 A2996 RMK A01 T01290073  RH  069%=      5-min Rain = 0
KOD1 162206Z 34018KT 13/07 A2996 RMK A01 T01290073  RH  069%=      5-min Rain = 0
KOD1 162207Z 35019KT 13/07 A2996 RMK A01 T01280072  RH  069%=      5-min Rain = 0
KOD1 162208Z 35017KT 13/07 A2996 RMK A01 T01280070  RH  068%=      5-min Rain = 0
KOD1 162209Z 34016KT 13/07 A2996 RMK A01 T01290073  RH  069%=      5-min Rain = 0
KOD1 162210Z 34017KT 13/07 A2996 RMK A01 T01300072  RH  068%=      5-min Rain = 0
KOD1 162211Z 34019KT 13/07 A2996 RMK A01 T01300069  RH  067%=      5-min Rain = 0
KOD1 162212Z 34019KT 13/07 A2996 RMK A01 T01300068  RH  066%=      5-min Rain = 0
KOD1 162213Z 34021G26KT 13/07 A2996 RMK A01 T01300067  RH  066%=      5-min Rain = 0
KOD1 162214Z 34019KT 13/07 A2996 RMK A01 T01300066  RH  065%=      5-min Rain = 0
KOD1 162215Z 34020KT 13/07 A2996 RMK A01 T01300066  RH  065%=      5-min Rain = 0
KOD1 162216Z 34018KT 13/07 A2996 RMK A01 T01300067  RH  065%=      5-min Rain = 0
KOD1 162217Z 34020KT 13/06 A2996 RMK A01 T01300064  RH  064%=      5-min Rain = 0
KOD1 162218Z 34019KT 13/07 A2996 RMK A01 T01300066  RH  065%=      5-min Rain = 0
KOD1 162219Z 34021KT 13/07 A2996 RMK A01 T01300065  RH  065%=      5-min Rain = 0
KOD1 162220Z 34018G25KT 13/07 A2997 RMK A01 T01310068  RH  066%=      5-min Rain = 0
KOD1 162221Z 34018KT 13/07 A2997 RMK A01 T01310067  RH  065%=      5-min Rain = 0
KOD1 162222Z 33017KT 13/07 A2996 RMK A01 T01320067  RH  065%=      5-min Rain = 0
KOD1 162223Z 33019KT 13/07 A2996 RMK A01 T01330069  RH  065%=      5-min Rain = 0
KOD1 162224Z 33018KT 13/07 A2996 RMK A01 T01320068  RH  065%=      5-min Rain = 0
KOD1 162225Z 33017G23KT 13/07 A2997 RMK A01 T01320068  RH  065%=      5-min Rain = 0
KOD1 162226Z 33021KT 13/07 A2997 RMK A01 T01320067  RH  065%=      5-min Rain = 0
KOD1 162227Z 34021KT 13/06 A2997 RMK A01 T01300063  RH  064%=      5-min Rain = 0
KOD1 162228Z 34019KT 13/06 A2997 RMK A01 T01300063  RH  064%=      5-min Rain = 0
KOD1 162229Z 34019KT 13/06 A2997 RMK A01 T01290064  RH  064%=      5-min Rain = 0
KOD1 162230Z 35016KT 13/07 A2997 RMK A01 T01290066  RH  065%=      5-min Rain = 0
KOD1 162231Z 34015KT 13/07 A2997 RMK A01 T01300069  RH  066%=      5-min Rain = 0
KOD1 162232Z 34015KT 13/07 A2997 RMK A01 T01300068  RH  066%=      5-min Rain = 0
KOD1 162233Z 34014G20KT 13/07 A2997 RMK A01 T01310072  RH  067%=      5-min Rain = 0
KOD1 162234Z 34020KT 13/07 A2997 RMK A01 T01310069  RH  066%=      5-min Rain = 0
KOD1 162235Z 34018KT 13/07 A2997 RMK A01 T01310067  RH  065%=      5-min Rain = 0
KOD1 162236Z 34017KT 13/07 A2997 RMK A01 T01310067  RH  065%=      5-min Rain = 0
KOD1 162237Z 33013G18KT 13/07 A2997 RMK A01 T01310070  RH  066%=      5-min Rain = 0
KOD1 162238Z 34014KT 13/07 A2997 RMK A01 T01330073  RH  067%=      5-min Rain = 0
KOD1 162239Z 34013KT 13/07 A2997 RMK A01 T01320072  RH  067%=      5-min Rain = 0
KOD1 162240Z 33018KT 13/07 A2997 RMK A01 T01330072  RH  067%=      5-min Rain = 0
KOD1 162241Z 33019KT 13/07 A2997 RMK A01 T01320067  RH  065%=      5-min Rain = 0
KOD1 162242Z 33018KT 13/07 A2997 RMK A01 T01310067  RH  065%=      5-min Rain = 0
KOD1 162243Z 33015G21KT 13/07 A2997 RMK A01 T01320071  RH  066%=      5-min Rain = 0
KOD1 162244Z 32018KT 13/07 A2997 RMK A01 T01320069  RH  066%=      5-min Rain = 0
KOD1 162245Z 33015G21KT 13/07 A2997 RMK A01 T01310070  RH  066%=      5-min Rain = 0
KOD1 162246Z 34017KT 13/07 A2997 RMK A01 T01320070  RH  066%=      5-min Rain = 0
KOD1 162247Z 34016G21KT 13/07 A2997 RMK A01 T01320070  RH  066%=      5-min Rain = 0
KOD1 162248Z 34016KT 13/07 A2998 RMK A01 T01310070  RH  067%=      5-min Rain = 0
KOD1 162249Z 34016KT 13/07 A2998 RMK A01 T01300071  RH  067%=      5-min Rain = 0
KOD1 162250Z 33015KT 13/07 A2998 RMK A01 T01300071  RH  067%=      5-min Rain = 0
KOD1 162251Z 34019KT 13/07 A2998 RMK A01 T01300070  RH  067%=      5-min Rain = 0
KOD1 162252Z 34016KT 13/07 A2998 RMK A01 T01300070  RH  067%=      5-min Rain = 0
KOD1 162253Z 34019KT 13/07 A2998 RMK A01 T01310068  RH  066%=      5-min Rain = 0
KOD1 162254Z 34019KT 13/07 A2998 RMK A01 T01310068  RH  066%=      5-min Rain = 0
KOD1 162255Z 34018KT 13/07 A2998 RMK A01 T01310068  RH  066%=      5-min Rain = 0
KOD1 162256Z 33018KT 13/07 A2998 RMK A01 T01310069  RH  066%=      5-min Rain = 0
KOD1 162257Z 33016KT 13/07 A2998 RMK A01 T01320071  RH  066%=      5-min Rain = 0
KOD1 162258Z 34015KT 13/07 A2998 RMK A01 T01330073  RH  067%=      5-min Rain = 0
KOD1 162259Z 33015G20KT 13/07 A2998 RMK A01 T01340073  RH  066%=      5-min Rain = 0
KOD1 162300Z 33019KT 13/07 A2998 RMK A01 T01340072  RH  066%=      5-min Rain = 0
KOD1 162301Z 33020KT 13/07 A2998 RMK A01 T01320069  RH  066%=      5-min Rain = 0
KOD1 162302Z 34017KT 13/07 A2998 RMK A01 T01310069  RH  066%=      5-min Rain = 0
KOD1 162303Z 35017KT 13/07 A2998 RMK A01 T01310070  RH  067%=      5-min Rain = 0
KOD1 162304Z 35017KT 13/07 A2998 RMK A01 T01310071  RH  067%=      5-min Rain = 0
KOD1 162305Z 35017KT 13/07 A2998 RMK A01 T01320074  RH  068%=      5-min Rain = 0
KOD1 162306Z 35017KT 13/07 A2998 RMK A01 T01320072  RH  067%=      5-min Rain = 0
KOD1 162307Z 36014KT 13/07 A2998 RMK A01 T01310073  RH  068%=      5-min Rain = 0
KOD1 162308Z 35017KT 13/07 A2998 RMK A01 T01310072  RH  068%=      5-min Rain = 0
KOD1 162309Z 35017KT 13/07 A2998 RMK A01 T01300070  RH  067%=      5-min Rain = 0
KOD1 162310Z 35016G21KT 13/07 A2998 RMK A01 T01300070  RH  067%=      5-min Rain = 0
KOD1 162311Z 34020KT 13/07 A2998 RMK A01 T01290069  RH  067%=      5-min Rain = 0
KOD1 162312Z 34017KT 13/07 A2998 RMK A01 T01280068  RH  067%=      5-min Rain = 0
KOD1 162313Z 35018KT 13/07 A2998 RMK A01 T01270069  RH  068%=      5-min Rain = 0
KOD1 162314Z 34020KT 13/07 A2998 RMK A01 T01260067  RH  067%=      5-min Rain = 0
KOD1 162315Z 34016KT 13/07 A2998 RMK A01 T01260069  RH  068%=      5-min Rain = 0
KOD1 162316Z 34017KT 13/07 A2999 RMK A01 T01270069  RH  068%=      5-min Rain = 0
KOD1 162317Z 34016KT 13/07 A2999 RMK A01 T01270069  RH  068%=      5-min Rain = 0
KOD1 162318Z 34014G20KT 13/07 A2998 RMK A01 T01270071  RH  068%=      5-min Rain = 0
KOD1 162319Z 35012KT 13/07 A2999 RMK A01 T01280073  RH  069%=      5-min Rain = 0
KOD1 162320Z 35012KT 13/07 A2999 RMK A01 T01280074  RH  070%=      5-min Rain = 0
KOD1 162321Z 35014KT 13/07 A2999 RMK A01 T01280073  RH  069%=      5-min Rain = 0
KOD1 162322Z 34012KT 13/07 A2999 RMK A01 T01280074  RH  070%=      5-min Rain = 0
KOD1 162323Z 35016KT 13/07 A2999 RMK A01 T01280073  RH  069%=      5-min Rain = 0
KOD1 162324Z 34017KT 13/07 A2999 RMK A01 T01280073  RH  069%=      5-min Rain = 0
KOD1 162325Z 34016KT 13/07 A2999 RMK A01 T01270072  RH  069%=      5-min Rain = 0
KOD1 162326Z 33016KT 13/07 A2999 RMK A01 T01270074  RH  070%=      5-min Rain = 0
KOD1 162327Z 34017KT 13/07 A2999 RMK A01 T01260072  RH  070%=      5-min Rain = 0
KOD1 162328Z 33017KT 13/07 A2999 RMK A01 T01250073  RH  070%=      5-min Rain = 0
KOD1 162329Z 34016G21KT 12/07 A2999 RMK A01 T01240071  RH  070%=      5-min Rain = 0
KOD1 162330Z 33015KT 12/07 A2999 RMK A01 T01230073  RH  071%=      5-min Rain = 0
KOD1 162331Z 33018KT 12/07 A2999 RMK A01 T01230072  RH  071%=      5-min Rain = 0
KOD1 162332Z 33019KT 12/07 A2999 RMK A01 T01220071  RH  071%=      5-min Rain = 0
KOD1 162333Z 33018KT 12/07 A2999 RMK A01 T01210070  RH  071%=      5-min Rain = 0
KOD1 162334Z 34018KT 12/07 A2999 RMK A01 T01210070  RH  071%=      5-min Rain = 0
KOD1 162335Z 34018KT 12/07 A2999 RMK A01 T01200070  RH  071%=      5-min Rain = 0
KOD1 162336Z 34017KT 12/07 A2999 RMK A01 T01200070  RH  071%=      5-min Rain = 0
KOD1 162337Z 34016G21KT 12/07 A2999 RMK A01 T01190070  RH  072%=      5-min Rain = 0
KOD1 162338Z 34017KT 12/07 A2999 RMK A01 T01190071  RH  072%=      5-min Rain = 0
KOD1 162339Z 34016KT 12/07 A2999 RMK A01 T01190071  RH  072%=      5-min Rain = 0
KOD1 162340Z 34017G25KT 12/07 A2999 RMK A01 T01190071  RH  072%=      5-min Rain = 0
KOD1 162341Z 34016KT 12/07 A2999 RMK A01 T01190072  RH  073%=      5-min Rain = 0
KOD1 162342Z 34016KT 12/07 A2999 RMK A01 T01200072  RH  073%=      5-min Rain = 0
KOD1 162343Z 34017G23KT 12/07 A2999 RMK A01 T01190071  RH  072%=      5-min Rain = 0
KOD1 162344Z 34016KT 12/07 A2999 RMK A01 T01190070  RH  072%=      5-min Rain = 0
KOD1 162345Z 34016KT 12/07 A2999 RMK A01 T01190070  RH  072%=      5-min Rain = 0
KOD1 162346Z 33015KT 12/07 A2999 RMK A01 T01200071  RH  072%=      5-min Rain = 0
KOD1 162347Z 34014KT 12/07 A2999 RMK A01 T01200071  RH  072%=      5-min Rain = 0
KOD1 162348Z 34015G20KT 12/07 A2999 RMK A01 T01200073  RH  073%=      5-min Rain = 0
KOD1 162349Z 34017KT 12/07 A2999 RMK A01 T01200071  RH  072%=      5-min Rain = 0
KOD1 162350Z 34017KT 12/07 A2999 RMK A01 T01200070  RH  071%=      5-min Rain = 0
KOD1 162351Z 34017KT 12/07 A30 RMK A01 T01200070  RH  071%=      5-min Rain = 0
KOD1 162352Z 34016KT 12/07 A30 RMK A01 T01200071  RH  072%=      5-min Rain = 0
KOD1 162353Z 34016KT 12/07 A30 RMK A01 T01200072  RH  072%=      5-min Rain = 0
KOD1 162354Z 34013KT 12/07 A30 RMK A01 T01200072  RH  073%=      5-min Rain = 0
KOD1 162355Z 33015KT 12/07 A30 RMK A01 T01200073  RH  073%=      5-min Rain = 0
KOD1 162356Z 34017KT 12/07 A30 RMK A01 T01190071  RH  072%=      5-min Rain = 0
KOD1 162357Z 34016KT 12/07 A30 RMK A01 T01190071  RH  072%=      5-min Rain = 0
KOD1 162358Z 34017KT 12/07 A30 RMK A01 T01190071  RH  072%=      5-min Rain = 0
KOD1 162359Z 34014KT 12/07 A30 RMK A01 T01190071  RH  073%=      5-min Rain = 0
KOD1 170000Z 34016KT 12/07 A30 RMK A01 T01190071  RH  073%=      5-min Rain = 0
KOD1 170001Z 33018KT 12/07 A30 RMK A01 T01190070  RH  072%=      5-min Rain = 0
KOD1 170002Z 34013KT 12/07 A30 RMK A01 T01190070  RH  072%=      5-min Rain = 0
KOD1 170003Z 34015KT 12/07 A30 RMK A01 T01190072  RH  073%=      5-min Rain = 0
KOD1 170004Z 34017KT 12/07 A30 RMK A01 T01190071  RH  073%=      5-min Rain = 0
KOD1 170005Z 34014KT 12/07 A30 RMK A01 T01190071  RH  073%=      5-min Rain = 0
KOD1 170006Z 34015KT 12/07 A30 RMK A01 T01190072  RH  073%=      5-min Rain = 0
KOD1 170007Z 34016KT 12/07 A30 RMK A01 T01180072  RH  073%=      5-min Rain = 0
KOD1 170008Z 33015KT 12/07 A3001 RMK A01 T01190072  RH  073%=      5-min Rain = 0
KOD1 170009Z 34018KT 12/07 A3001 RMK A01 T01190072  RH  073%=      5-min Rain = 0
KOD1 170010Z 34016KT 12/07 A3001 RMK A01 T01180072  RH  073%=      5-min Rain = 0
KOD1 170011Z 34014KT 12/07 A3001 RMK A01 T01190073  RH  073%=      5-min Rain = 0
KOD1 170012Z 34015KT 12/07 A3001 RMK A01 T01180073  RH  074%=      5-min Rain = 0
KOD1 170013Z 34018KT 12/07 A3001 RMK A01 T01180072  RH  074%=      5-min Rain = 0
KOD1 170014Z 33017G22KT 12/07 A3001 RMK A01 T01180072  RH  074%=      5-min Rain = 0
KOD1 170015Z 34017G22KT 12/07 A3001 RMK A01 T01170072  RH  074%=      5-min Rain = 0
KOD1 170016Z 34018G23KT 12/07 A3001 RMK A01 T01170072  RH  074%=      5-min Rain = 0
KOD1 170017Z 34020KT 12/07 A3002 RMK A01 T01150070  RH  074%=      5-min Rain = 0
KOD1 170018Z 34018G23KT 11/07 A3002 RMK A01 T01130071  RH  075%=      5-min Rain = 0
KOD1 170019Z 34018G23KT 11/07 A3002 RMK A01 T01110070  RH  076%=      5-min Rain = 0
KOD1 170020Z 33019KT 11/07 A3002 RMK A01 T01100070  RH  076%=      5-min Rain = 0
KOD1 170021Z 33020KT 11/07 A3002 RMK A01 T01100070  RH  076%=      5-min Rain = 0
KOD1 170022Z 34016KT 11/07 A3002 RMK A01 T01100070  RH  077%=      5-min Rain = 0
KOD1 170023Z 33021KT 11/07 A3002 RMK A01 T01090070  RH  077%=      5-min Rain = 0
KOD1 170024Z 34019KT 11/07 A3002 RMK A01 T01080069  RH  077%=      5-min Rain = 0
KOD1 170025Z 34018KT 11/07 A3002 RMK A01 T01080070  RH  077%=      5-min Rain = 0
KOD1 170026Z 34018KT 11/07 A3002 RMK A01 T01080069  RH  077%=      5-min Rain = 0
KOD1 170027Z 33016KT 11/07 A3002 RMK A01 T01080070  RH  078%=      5-min Rain = 0
KOD1 170028Z 33016G21KT 11/07 A3002 RMK A01 T01080071  RH  078%=      5-min Rain = 0
KOD1 170029Z 34017G24KT 11/07 A3002 RMK A01 T01070070  RH  078%=      5-min Rain = 0
KOD1 170030Z 34020KT 11/07 A3002 RMK A01 T01060070  RH  078%=      5-min Rain = 0
KOD1 170031Z 33020KT 11/07 A3003 RMK A01 T01060069  RH  078%=      5-min Rain = 0
KOD1 170032Z 33018KT 11/07 A3003 RMK A01 T01050070  RH  079%=      5-min Rain = 0
KOD1 170033Z 34017KT 11/07 A3003 RMK A01 T01050070  RH  079%=      5-min Rain = 0
KOD1 170034Z 34020KT 11/07 A3003 RMK A01 T01050070  RH  079%=      5-min Rain = 0
KOD1 170035Z 34018KT 10/07 A3003 RMK A01 T01040070  RH  079%=      5-min Rain = 0
KOD1 170036Z 34019G24KT 10/07 A3003 RMK A01 T01040070  RH  079%=      5-min Rain = 0
KOD1 170037Z 33017KT 10/07 A3003 RMK A01 T01040069  RH  079%=      5-min Rain = 0
KOD1 170038Z 34016KT 10/07 A3003 RMK A01 T01040070  RH  080%=      5-min Rain = 0
KOD1 170039Z 33016KT 10/07 A3003 RMK A01 T01040070  RH  080%=      5-min Rain = 0
KOD1 170040Z 33018KT 10/07 A3003 RMK A01 T01040070  RH  080%=      5-min Rain = 0
KOD1 170041Z 33015KT 10/07 A3003 RMK A01 T01030071  RH  080%=      5-min Rain = 0
KOD1 170042Z 33018KT 10/07 A3003 RMK A01 T01030071  RH  080%=      5-min Rain = 0
KOD1 170043Z 34015KT 10/07 A3003 RMK A01 T01030071  RH  081%=      5-min Rain = 0
KOD1 170044Z 34013KT 10/07 A3004 RMK A01 T01030071  RH  081%=      5-min Rain = 0
KOD1 170045Z 33016G21KT 10/07 A3004 RMK A01 T01030072  RH  081%=      5-min Rain = 0
KOD1 170046Z 33019KT 10/07 A3003 RMK A01 T01020071  RH  081%=      5-min Rain = 0
KOD1 170047Z 34017KT 10/07 A3004 RMK A01 T01020070  RH  081%=      5-min Rain = 0
KOD1 170048Z 33015KT 10/07 A3004 RMK A01 T01020070  RH  081%=      5-min Rain = 0
KOD1 170049Z 33016G21KT 10/07 A3004 RMK A01 T01020071  RH  081%=      5-min Rain = 0
KOD1 170050Z 33016KT 10/07 A3004 RMK A01 T01020071  RH  081%=      5-min Rain = 0
KOD1 170051Z 33015KT 10/07 A3004 RMK A01 T01020071  RH  081%=      5-min Rain = 0
KOD1 170052Z 34018KT 10/07 A3004 RMK A01 T01020071  RH  081%=      5-min Rain = 0
KOD1 170053Z 34016KT 10/07 A3004 RMK A01 T01020070  RH  081%=      5-min Rain = 0
KOD1 170054Z 34018KT 10/07 A3004 RMK A01 T01020070  RH  081%=      5-min Rain = 0
KOD1 170055Z 34019KT 10/07 A3004 RMK A01 T01020070  RH  081%=      5-min Rain = 0
KOD1 170056Z 35018KT 10/07 A3004 RMK A01 T01020068  RH  080%=      5-min Rain = 0
KOD1 170057Z 34017KT 10/07 A3004 RMK A01 T01020068  RH  080%=      5-min Rain = 0
KOD1 170058Z 35019KT 10/07 A3004 RMK A01 T01010067  RH  079%=      5-min Rain = 0
KOD1 170059Z 34018KT 10/07 A3004 RMK A01 T01010066  RH  079%=      5-min Rain = 0
KOD1 170100Z 34019KT 10/07 A3004 RMK A01 T01010066  RH  079%=      5-min Rain = 0
KOD1 170101Z 34019KT 10/07 A3004 RMK A01 T01000065  RH  079%=      5-min Rain = 0
KOD1 170102Z 34019KT 10/07 A3004 RMK A01 T01000065  RH  079%=      5-min Rain = 0
KOD1 170103Z 34016KT 10/06 A3005 RMK A01 T01000064  RH  079%=      5-min Rain = 0
KOD1 170104Z 35020G26KT 10/06 A3005 RMK A01 T01000064  RH  078%=      5-min Rain = 0
KOD1 170105Z 34018G23KT 10/06 A3005 RMK A01 T01000064  RH  078%=      5-min Rain = 0
KOD1 170106Z 34018KT 10/06 A3005 RMK A01 T00990064  RH  079%=      5-min Rain = 0
KOD1 170107Z 34019KT 10/06 A3005 RMK A01 T00990063  RH  079%=      5-min Rain = 0
KOD1 170108Z 34017KT 10/06 A3005 RMK A01 T00990063  RH  079%=      5-min Rain = 0
KOD1 170109Z 34017KT 10/06 A3005 RMK A01 T00990064  RH  079%=      5-min Rain = 0
KOD1 170110Z 34016KT 10/06 A3005 RMK A01 T00980064  RH  079%=      5-min Rain = 0
KOD1 170111Z 34016G21KT 10/06 A3005 RMK A01 T00980063  RH  079%=      5-min Rain = 0
KOD1 170112Z 34020KT 10/06 A3005 RMK A01 T00980063  RH  079%=      5-min Rain = 0
KOD1 170113Z 34020KT 10/06 A3005 RMK A01 T00970062  RH  079%=      5-min Rain = 0
KOD1 170114Z 34018G23KT 10/06 A3005 RMK A01 T00970062  RH  079%=      5-min Rain = 0
KOD1 170115Z 34019G24KT 10/06 A3005 RMK A01 T00970062  RH  079%=      5-min Rain = 0
KOD1 170116Z 34020G25KT 10/06 A3006 RMK A01 T00960062  RH  079%=      5-min Rain = 0
KOD1 170117Z 34020G26KT 10/06 A3006 RMK A01 T00960061  RH  079%=      5-min Rain = 0
KOD1 170118Z 34018KT 10/06 A3006 RMK A01 T00960062  RH  079%=      5-min Rain = 0
KOD1 170119Z 34017KT 10/06 A3006 RMK A01 T00950062  RH  080%=      5-min Rain = 0
KOD1 170120Z 34016G22KT 10/06 A3006 RMK A01 T00950062  RH  080%=      5-min Rain = 0
KOD1 170121Z 34017KT 09/06 A3006 RMK A01 T00940062  RH  080%=      5-min Rain = 0
KOD1 170122Z 34018KT 09/06 A3006 RMK A01 T00940062  RH  081%=      5-min Rain = 0
KOD1 170123Z 34019KT 09/06 A3006 RMK A01 T00930062  RH  081%=      5-min Rain = 0
KOD1 170124Z 34022KT 09/06 A3006 RMK A01 T00920061  RH  081%=      5-min Rain = 0
KOD1 170125Z 34016KT 09/06 A3006 RMK A01 T00920061  RH  081%=      5-min Rain = 0
KOD1 170126Z 33015G20KT 09/06 A3007 RMK A01 T00920061  RH  081%=      5-min Rain = 0
KOD1 170127Z 34017KT 09/06 A3007 RMK A01 T00910061  RH  082%=      5-min Rain = 0
KOD1 170128Z 33015G20KT 09/06 A3007 RMK A01 T00900061  RH  082%=      5-min Rain = 0
KOD1 170129Z 33017KT 09/06 A3007 RMK A01 T00900061  RH  082%=      5-min Rain = 0
KOD1 170130Z 34017KT 09/06 A3007 RMK A01 T00890061  RH  082%=      5-min Rain = 0
KOD1 170131Z 34015KT 09/06 A3007 RMK A01 T00890061  RH  083%=      5-min Rain = 0
KOD1 170132Z 35017KT 09/06 A3007 RMK A01 T00880061  RH  083%=      5-min Rain = 0
KOD1 170133Z 34016KT 09/06 A3007 RMK A01 T00880061  RH  083%=      5-min Rain = 0
KOD1 170134Z 34016KT 09/06 A3007 RMK A01 T00880060  RH  083%=      5-min Rain = 0
KOD1 170135Z 34011KT 09/06 A3007 RMK A01 T00870061  RH  083%=      5-min Rain = 0
KOD1 170136Z 34012KT 09/06 A3007 RMK A01 T00870061  RH  084%=      5-min Rain = 0
KOD1 170137Z 34013KT 09/06 A3007 RMK A01 T00860061  RH  084%=      5-min Rain = 0
KOD1 170138Z 34019KT 09/06 A3007 RMK A01 T00860060  RH  084%=      5-min Rain = 0
KOD1 170139Z 34018KT 09/06 A3007 RMK A01 T00860060  RH  084%=      5-min Rain = 0
KOD1 170140Z 35018KT 09/06 A3007 RMK A01 T00860060  RH  084%=      5-min Rain = 0
KOD1 170141Z 35015KT 09/06 A3007 RMK A01 T00850060  RH  084%=      5-min Rain = 0
KOD1 170142Z 35018KT 09/06 A3007 RMK A01 T00850060  RH  084%=      5-min Rain = 0
KOD1 170143Z 35016G21KT 09/06 A3008 RMK A01 T00850060  RH  084%=      5-min Rain = 0
KOD1 170144Z 35018KT 09/06 A3008 RMK A01 T00850059  RH  084%=      5-min Rain = 0
KOD1 170145Z 35018KT 09/06 A3008 RMK A01 T00850059  RH  084%=      5-min Rain = 0
KOD1 170146Z 35016KT 09/06 A3008 RMK A01 T00850059  RH  083%=      5-min Rain = 0
KOD1 170147Z 35018KT 09/06 A3008 RMK A01 T00850058  RH  083%=      5-min Rain = 0
KOD1 170148Z 35017KT 09/06 A3008 RMK A01 T00850058  RH  083%=      5-min Rain = 0
KOD1 170149Z 35018KT 09/06 A3008 RMK A01 T00850057  RH  083%=      5-min Rain = 0
KOD1 170150Z 35017KT 09/06 A3008 RMK A01 T00850057  RH  083%=      5-min Rain = 0
KOD1 170151Z 35016KT 09/06 A3008 RMK A01 T00850057  RH  083%=      5-min Rain = 0
KOD1 170152Z 35015G20KT 09/06 A3008 RMK A01 T00850057  RH  083%=      5-min Rain = 0
KOD1 170153Z 35017KT 09/06 A3008 RMK A01 T00850057  RH  083%=      5-min Rain = 0
KOD1 170154Z 35018G24KT 09/06 A3008 RMK A01 T00850056  RH  082%=      5-min Rain = 0
KOD1 170155Z 35015KT 09/06 A3008 RMK A01 T00860056  RH  081%=      5-min Rain = 0
KOD1 170156Z 35016KT 09/06 A3008 RMK A01 T00860056  RH  081%=      5-min Rain = 0
KOD1 170157Z 35015KT 09/06 A3008 RMK A01 T00860055  RH  081%=      5-min Rain = 0
KOD1 170158Z 35017KT 09/06 A3008 RMK A01 T00860055  RH  081%=      5-min Rain = 0
KOD1 170159Z 35015G20KT 09/05 A3008 RMK A01 T00870054  RH  080%=      5-min Rain = 0
KOD1 170200Z 35014KT 09/05 A3009 RMK A01 T00860054  RH  080%=      5-min Rain = 0
KOD1 170201Z 35012G17KT 09/06 A3009 RMK A01 T00870055  RH  080%=      5-min Rain = 0
KOD1 170202Z 35012KT 09/06 A3009 RMK A01 T00860055  RH  081%=      5-min Rain = 0
KOD1 170203Z 35013KT 09/06 A3009 RMK A01 T00870055  RH  081%=      5-min Rain = 0
KOD1 170204Z 34013G18KT 09/06 A3009 RMK A01 T00870055  RH  080%=      5-min Rain = 0
KOD1 170205Z 35013KT 09/06 A3009 RMK A01 T00870055  RH  080%=      5-min Rain = 0
KOD1 170206Z 35013KT 09/05 A3009 RMK A01 T00870054  RH  080%=      5-min Rain = 0
KOD1 170207Z 34012KT 09/06 A3009 RMK A01 T00880055  RH  080%=      5-min Rain = 0
KOD1 170208Z 34014KT 09/05 A3009 RMK A01 T00880054  RH  080%=      5-min Rain = 0
KOD1 170209Z 34014KT 09/05 A3009 RMK A01 T00880054  RH  079%=      5-min Rain = 0
KOD1 170210Z 34014KT 09/05 A301 RMK A01 T00880054  RH  079%=      5-min Rain = 0
KOD1 170211Z 34013KT 09/06 A301 RMK A01 T00890055  RH  079%=      5-min Rain = 0
KOD1 170212Z 34013G18KT 09/06 A301 RMK A01 T00880055  RH  079%=      5-min Rain = 0
KOD1 170213Z 34016KT 09/06 A301 RMK A01 T00880055  RH  079%=      5-min Rain = 0
KOD1 170214Z 34014KT 09/05 A301 RMK A01 T00880054  RH  079%=      5-min Rain = 0
KOD1 170215Z 33016KT 09/05 A301 RMK A01 T00880053  RH  079%=      5-min Rain = 0
KOD1 170216Z 33018KT 09/05 A301 RMK A01 T00880052  RH  079%=      5-min Rain = 0
KOD1 170217Z 34016KT 09/05 A301 RMK A01 T00880051  RH  078%=      5-min Rain = 0
KOD1 170218Z 34015KT 09/05 A301 RMK A01 T00880050  RH  077%=      5-min Rain = 0
KOD1 170219Z 33014KT 09/05 A301 RMK A01 T00880050  RH  077%=      5-min Rain = 0
KOD1 170220Z 34013KT 09/05 A301 RMK A01 T00880050  RH  077%=      5-min Rain = 0
KOD1 170221Z 34017KT 09/05 A301 RMK A01 T00870050  RH  077%=      5-min Rain = 0
KOD1 170222Z 34017KT 09/05 A301 RMK A01 T00870049  RH  077%=      5-min Rain = 0
KOD1 170223Z 34016KT 09/05 A301 RMK A01 T00880050  RH  077%=      5-min Rain = 0
KOD1 170224Z 35015KT 09/05 A301 RMK A01 T00880049  RH  077%=      5-min Rain = 0
KOD1 170225Z 34016KT 09/05 A301 RMK A01 T00870049  RH  077%=      5-min Rain = 0
KOD1 170226Z 34013KT 09/05 A3011 RMK A01 T00870049  RH  077%=      5-min Rain = 0
KOD1 170227Z 35015KT 09/05 A3011 RMK A01 T00870050  RH  077%=      5-min Rain = 0
KOD1 170228Z 35019KT 09/05 A3011 RMK A01 T00870049  RH  077%=      5-min Rain = 0
KOD1 170229Z 34014G19KT 09/05 A3011 RMK A01 T00880048  RH  076%=      5-min Rain = 0
KOD1 170230Z 35015KT 09/05 A3011 RMK A01 T00880049  RH  077%=      5-min Rain = 0
KOD1 170231Z 35015KT 09/05 A3011 RMK A01 T00870049  RH  077%=      5-min Rain = 0
KOD1 170232Z 35014KT 09/05 A3011 RMK A01 T00870049  RH  077%=      5-min Rain = 0
KOD1 170233Z 35013G18KT 09/05 A3011 RMK A01 T00870049  RH  077%=      5-min Rain = 0
KOD1 170234Z 35015KT 09/05 A3011 RMK A01 T00870049  RH  077%=      5-min Rain = 0
KOD1 170235Z 35013KT 09/05 A3011 RMK A01 T00870049  RH  077%=      5-min Rain = 0
KOD1 170236Z 34013KT 09/05 A3011 RMK A01 T00870049  RH  077%=      5-min Rain = 0
KOD1 170237Z 34014KT 09/05 A3011 RMK A01 T00860048  RH  077%=      5-min Rain = 0
KOD1 170238Z 35013KT 09/05 A3011 RMK A01 T00870048  RH  077%=      5-min Rain = 0
KOD1 170239Z 35013G18KT 09/05 A3011 RMK A01 T00860047  RH  076%=      5-min Rain = 0
KOD1 170240Z 35015KT 09/05 A3011 RMK A01 T00870047  RH  076%=      5-min Rain = 0
KOD1 170241Z 34013KT 09/05 A3011 RMK A01 T00870048  RH  076%=      5-min Rain = 0
KOD1 170242Z 34012KT 09/05 A3011 RMK A01 T00870048  RH  076%=      5-min Rain = 0
KOD1 170243Z 34014KT 09/05 A3011 RMK A01 T00870047  RH  076%=      5-min Rain = 0
KOD1 170244Z 34012KT 09/05 A3011 RMK A01 T00870047  RH  076%=      5-min Rain = 0
KOD1 170245Z 35014KT 09/05 A3011 RMK A01 T00860047  RH  076%=      5-min Rain = 0
KOD1 170246Z 35012KT 09/05 A3011 RMK A01 T00870047  RH  076%=      5-min Rain = 0
KOD1 170247Z 34010KT 09/05 A3011 RMK A01 T00860047  RH  076%=      5-min Rain = 0
KOD1 170248Z 34011KT 09/05 A3012 RMK A01 T00870048  RH  077%=      5-min Rain = 0
KOD1 170249Z 34011KT 09/05 A3012 RMK A01 T00860048  RH  077%=      5-min Rain = 0
KOD1 170250Z 34013KT 09/05 A3012 RMK A01 T00870048  RH  077%=      5-min Rain = 0
KOD1 170251Z 34012KT 09/05 A3011 RMK A01 T00860048  RH  077%=      5-min Rain = 0
KOD1 170252Z 34009KT 09/05 A3012 RMK A01 T00860049  RH  077%=      5-min Rain = 0
KOD1 170253Z 34012KT 09/05 A3012 RMK A01 T00860049  RH  077%=      5-min Rain = 0
KOD1 170254Z 34013KT 09/05 A3012 RMK A01 T00860048  RH  077%=      5-min Rain = 0
KOD1 170255Z 34012KT 09/05 A3012 RMK A01 T00870048  RH  077%=      5-min Rain = 0
KOD1 170256Z 34012KT 09/05 A3012 RMK A01 T00860047  RH  076%=      5-min Rain = 0
KOD1 170257Z 34012KT 09/05 A3012 RMK A01 T00870048  RH  077%=      5-min Rain = 0
KOD1 170258Z 34013KT 09/05 A3012 RMK A01 T00870048  RH  077%=      5-min Rain = 0
KOD1 170259Z 35012KT 09/05 A3012 RMK A01 T00870047  RH  076%=      5-min Rain = 0
KOD1 170300Z 35010KT 09/05 A3012 RMK A01 T00870047  RH  076%=      5-min Rain = 0
KOD1 170301Z 35013KT 09/05 A3012 RMK A01 T00870048  RH  077%=      5-min Rain = 0
KOD1 170302Z 35013KT 09/05 A3012 RMK A01 T00860047  RH  076%=      5-min Rain = 0
KOD1 170303Z 35013KT 09/05 A3012 RMK A01 T00870046  RH  076%=      5-min Rain = 0
KOD1 170304Z 35012KT 09/05 A3012 RMK A01 T00870046  RH  076%=      5-min Rain = 0
KOD1 170305Z 34013KT 09/05 A3012 RMK A01 T00860047  RH  076%=      5-min Rain = 0
KOD1 170306Z 35014KT 09/05 A3012 RMK A01 T00860046  RH  076%=      5-min Rain = 0
KOD1 170307Z 35012KT 09/05 A3012 RMK A01 T00860045  RH  075%=      5-min Rain = 0
KOD1 170308Z 35014KT 09/05 A3012 RMK A01 T00870045  RH  075%=      5-min Rain = 0
KOD1 170309Z 35013KT 09/05 A3012 RMK A01 T00860045  RH  075%=      5-min Rain = 0
KOD1 170310Z 35019KT 09/05 A3012 RMK A01 T00860045  RH  075%=      5-min Rain = 0
KOD1 170311Z 35016KT 09/04 A3012 RMK A01 T00860044  RH  074%=      5-min Rain = 0
KOD1 170312Z 35015KT 09/04 A3012 RMK A01 T00870043  RH  074%=      5-min Rain = 0
KOD1 170313Z 34014KT 09/04 A3012 RMK A01 T00860043  RH  074%=      5-min Rain = 0
KOD1 170314Z 35016G24KT 09/04 A3012 RMK A01 T00860043  RH  074%=      5-min Rain = 0
KOD1 170315Z 35019KT 09/04 A3012 RMK A01 T00870041  RH  073%=      5-min Rain = 0
KOD1 170316Z 35017KT 09/04 A3012 RMK A01 T00860040  RH  073%=      5-min Rain = 0
KOD1 170317Z 35015KT 09/04 A3013 RMK A01 T00870041  RH  073%=      5-min Rain = 0
KOD1 170318Z 35016KT 09/04 A3013 RMK A01 T00860041  RH  073%=      5-min Rain = 0
KOD1 170319Z 35014KT 09/04 A3013 RMK A01 T00860040  RH  073%=      5-min Rain = 0
KOD1 170320Z 36016KT 09/04 A3013 RMK A01 T00860040  RH  073%=      5-min Rain = 0
KOD1 170321Z 36017KT 09/04 A3013 RMK A01 T00860039  RH  072%=      5-min Rain = 0
KOD1 170322Z 35017KT 09/04 A3013 RMK A01 T00860039  RH  072%=      5-min Rain = 0
KOD1 170323Z 35018KT 09/04 A3013 RMK A01 T00860038  RH  072%=      5-min Rain = 0
KOD1 170324Z 36015KT 09/04 A3013 RMK A01 T00860037  RH  072%=      5-min Rain = 0
KOD1 170325Z 35017KT 09/04 A3013 RMK A01 T00860038  RH  072%=      5-min Rain = 0
KOD1 170326Z 35017KT 09/04 A3013 RMK A01 T00860038  RH  072%=      5-min Rain = 0
KOD1 170327Z 35016KT 09/04 A3013 RMK A01 T00860038  RH  072%=      5-min Rain = 0
KOD1 170328Z 35015KT 09/04 A3013 RMK A01 T00860038  RH  072%=      5-min Rain = 0
KOD1 170329Z 35013KT 09/04 A3013 RMK A01 T00860038  RH  072%=      5-min Rain = 0
KOD1 170330Z 36015KT 09/04 A3013 RMK A01 T00850038  RH  072%=      5-min Rain = 0
KOD1 170331Z 35018KT 09/04 A3013 RMK A01 T00850037  RH  072%=      5-min Rain = 0
KOD1 170332Z 35018KT 09/04 A3013 RMK A01 T00850035  RH  071%=      5-min Rain = 0
KOD1 170333Z 36017KT 09/04 A3013 RMK A01 T00850035  RH  071%=      5-min Rain = 0
KOD1 170334Z 35013KT 09/04 A3013 RMK A01 T00850036  RH  071%=      5-min Rain = 0
KOD1 170335Z 35014KT 09/04 A3013 RMK A01 T00850038  RH  072%=      5-min Rain = 0
KOD1 170336Z 36015KT 08/04 A3013 RMK A01 T00840037  RH  072%=      5-min Rain = 0
KOD1 170337Z 35014KT 09/04 A3013 RMK A01 T00850037  RH  072%=      5-min Rain = 0
KOD1 170338Z 35015KT 08/04 A3013 RMK A01 T00840036  RH  072%=      5-min Rain = 0
KOD1 170339Z 35017KT 09/04 A3013 RMK A01 T00850036  RH  072%=      5-min Rain = 0
KOD1 170340Z 36016KT 08/04 A3013 RMK A01 T00840036  RH  072%=      5-min Rain = 0
KOD1 170341Z 36016KT 08/04 A3013 RMK A01 T00840036  RH  071%=      5-min Rain = 0
KOD1 170342Z 36016KT 08/04 A3013 RMK A01 T00840036  RH  071%=      5-min Rain = 0
KOD1 170343Z 36015KT 08/04 A3013 RMK A01 T00840035  RH  071%=      5-min Rain = 0
KOD1 170344Z 36014KT 08/04 A3013 RMK A01 T00840035  RH  071%=      5-min Rain = 0
KOD1 170345Z 35015KT 08/03 A3013 RMK A01 T00830034  RH  071%=      5-min Rain = 0
KOD1 170346Z 36013KT 08/03 A3013 RMK A01 T00830034  RH  071%=      5-min Rain = 0
KOD1 170347Z 00011KT 08/03 A3013 RMK A01 T00820034  RH  072%=      5-min Rain = 0
KOD1 170348Z 00013KT 08/04 A3013 RMK A01 T00810035  RH  072%=      5-min Rain = 0
KOD1 170349Z 35013G19KT 08/03 A3013 RMK A01 T00810034  RH  073%=      5-min Rain = 0
KOD1 170350Z 36014KT 08/03 A3013 RMK A01 T00810034  RH  072%=      5-min Rain = 0
KOD1 170351Z 35014KT 08/03 A3013 RMK A01 T00810033  RH  072%=      5-min Rain = 0
KOD1 170352Z 00013KT 08/03 A3014 RMK A01 T00810033  RH  072%=      5-min Rain = 0
KOD1 170353Z 36011KT 08/03 A3014 RMK A01 T00800033  RH  072%=      5-min Rain = 0
KOD1 170354Z 36014KT 08/03 A3014 RMK A01 T00790033  RH  073%=      5-min Rain = 0
KOD1 170355Z 35011KT 08/03 A3014 RMK A01 T00790032  RH  072%=      5-min Rain = 0
KOD1 170356Z 36011KT 08/03 A3014 RMK A01 T00780032  RH  073%=      5-min Rain = 0
KOD1 170357Z 36011KT 08/03 A3014 RMK A01 T00780033  RH  073%=      5-min Rain = 0
KOD1 170358Z 35012KT 08/03 A3014 RMK A01 T00770033  RH  074%=      5-min Rain = 0
KOD1 170359Z 36011KT 08/03 A3014 RMK A01 T00770033  RH  074%=      5-min Rain = 0
KOD1 170400Z 00014KT 08/03 A3014 RMK A01 T00770032  RH  073%=      5-min Rain = 0
KOD1 170401Z 36012KT 08/03 A3014 RMK A01 T00770032  RH  073%=      5-min Rain = 0
KOD1 170402Z 36010KT 08/03 A3014 RMK A01 T00770032  RH  073%=      5-min Rain = 0
KOD1 170403Z 36010KT 08/03 A3014 RMK A01 T00760033  RH  074%=      5-min Rain = 0
KOD1 170404Z 36012KT 08/03 A3014 RMK A01 T00750033  RH  074%=      5-min Rain = 0
KOD1 170405Z 35011KT 08/03 A3014 RMK A01 T00760033  RH  074%=      5-min Rain = 0
KOD1 170406Z 36010KT 08/03 A3014 RMK A01 T00750033  RH  074%=      5-min Rain = 0
KOD1 170407Z 36010KT 08/03 A3014 RMK A01 T00750033  RH  075%=      5-min Rain = 0
KOD1 170408Z 35009KT 08/03 A3014 RMK A01 T00750034  RH  075%=      5-min Rain = 0
KOD1 170409Z 36009KT 07/03 A3014 RMK A01 T00740034  RH  076%=      5-min Rain = 0
KOD1 170410Z 36009KT 07/03 A3014 RMK A01 T00740034  RH  076%=      5-min Rain = 0
KOD1 170411Z 35008KT 07/03 A3014 RMK A01 T00730034  RH  076%=      5-min Rain = 0
KOD1 170412Z 35008KT 07/03 A3014 RMK A01 T00730034  RH  077%=      5-min Rain = 0
KOD1 170413Z 35008KT 07/04 A3014 RMK A01 T00720035  RH  077%=      5-min Rain = 0
KOD1 170414Z 35008KT 07/03 A3014 RMK A01 T00710034  RH  077%=      5-min Rain = 0
KOD1 170415Z 35007KT 07/04 A3014 RMK A01 T00710035  RH  078%=      5-min Rain = 0
KOD1 170416Z 35007KT 07/04 A3014 RMK A01 T00710035  RH  078%=      5-min Rain = 0
KOD1 170417Z 35006KT 07/04 A3014 RMK A01 T00710035  RH  078%=      5-min Rain = 0
KOD1 170418Z 35006KT 07/04 A3014 RMK A01 T00700035  RH  078%=      5-min Rain = 0
KOD1 170419Z 35006KT 07/04 A3014 RMK A01 T00700035  RH  079%=      5-min Rain = 0
KOD1 170420Z 35005KT 07/04 A3014 RMK A01 T00700035  RH  079%=      5-min Rain = 0
KOD1 170421Z 35005KT 07/04 A3014 RMK A01 T00700036  RH  079%=      5-min Rain = 0
KOD1 170422Z 35005KT 07/04 A3014 RMK A01 T00700036  RH  079%=      5-min Rain = 0
KOD1 170423Z 35005KT 07/04 A3014 RMK A01 T00690036  RH  079%=      5-min Rain = 0
KOD1 170424Z 34005KT 07/04 A3014 RMK A01 T00690036  RH  079%=      5-min Rain = 0
KOD1 170425Z 34006KT 07/04 A3014 RMK A01 T00690036  RH  079%=      5-min Rain = 0
KOD1 170426Z 34006KT 07/04 A3014 RMK A01 T00690036  RH  079%=      5-min Rain = 0
KOD1 170427Z 34006KT 07/04 A3014 RMK A01 T00690036  RH  079%=      5-min Rain = 0
KOD1 170428Z 34006KT 07/04 A3014 RMK A01 T00690036  RH  080%=      5-min Rain = 0
KOD1 170429Z 34005KT 07/04 A3014 RMK A01 T00690036  RH  080%=      5-min Rain = 0
KOD1 170430Z 34006KT 07/04 A3014 RMK A01 T00680036  RH  080%=      5-min Rain = 0
KOD1 170431Z 34006KT 07/04 A3015 RMK A01 T00680036  RH  080%=      5-min Rain = 0
KOD1 170432Z 33006KT 07/04 A3015 RMK A01 T00680036  RH  080%=      5-min Rain = 0
KOD1 170433Z 34006KT 07/04 A3015 RMK A01 T00680036  RH  080%=      5-min Rain = 0
KOD1 170434Z 34006KT 07/04 A3015 RMK A01 T00680036  RH  080%=      5-min Rain = 0
KOD1 170435Z 34006KT 07/04 A3014 RMK A01 T00680036  RH  080%=      5-min Rain = 0
KOD1 170436Z 34006KT 07/04 A3015 RMK A01 T00680036  RH  080%=      5-min Rain = 0
KOD1 170437Z 34006KT 07/04 A3015 RMK A01 T00690036  RH  080%=      5-min Rain = 0
KOD1 170438Z 34006KT 07/04 A3015 RMK A01 T00690036  RH  080%=      5-min Rain = 0
KOD1 170439Z 34007KT 07/04 A3014 RMK A01 T00690037  RH  080%=      5-min Rain = 0
KOD1 170440Z 33006KT 07/04 A3014 RMK A01 T00680036  RH  080%=      5-min Rain = 0
KOD1 170441Z 33006KT 07/04 A3015 RMK A01 T00680036  RH  080%=      5-min Rain = 0
KOD1 170442Z 33006KT 07/04 A3015 RMK A01 T00680035  RH  080%=      5-min Rain = 0
KOD1 170443Z 34006KT 07/04 A3015 RMK A01 T00680035  RH  080%=      5-min Rain = 0
KOD1 170444Z 34006KT 07/04 A3015 RMK A01 T00670035  RH  080%=      5-min Rain = 0
KOD1 170445Z 34006KT 07/04 A3014 RMK A01 T00670035  RH  080%=      5-min Rain = 0
KOD1 170446Z 33007KT 07/04 A3014 RMK A01 T00660035  RH  080%=      5-min Rain = 0
KOD1 170447Z 33006KT 07/03 A3014 RMK A01 T00660034  RH  080%=      5-min Rain = 0
KOD1 170448Z 34006KT 07/03 A3014 RMK A01 T00650034  RH  080%=      5-min Rain = 0
KOD1 170449Z 34006KT 07/04 A3014 RMK A01 T00660035  RH  081%=      5-min Rain = 0
KOD1 170450Z 34006KT 07/03 A3014 RMK A01 T00650034  RH  081%=      5-min Rain = 0
KOD1 170451Z 34006KT 07/03 A3014 RMK A01 T00650034  RH  081%=      5-min Rain = 0
KOD1 170452Z 34005KT 07/03 A3014 RMK A01 T00650034  RH  081%=      5-min Rain = 0
KOD1 170453Z 34005KT 07/03 A3014 RMK A01 T00650034  RH  081%=      5-min Rain = 0
KOD1 170454Z 34005KT 06/03 A3015 RMK A01 T00640033  RH  081%=      5-min Rain = 0
KOD1 170455Z 34005KT 06/03 A3014 RMK A01 T00640034  RH  081%=      5-min Rain = 0
KOD1 170456Z 34004KT 06/03 A3014 RMK A01 T00630034  RH  081%=      5-min Rain = 0
KOD1 170457Z 33005KT 06/03 A3014 RMK A01 T00630033  RH  081%=      5-min Rain = 0
KOD1 170458Z 34005KT 06/03 A3014 RMK A01 T00620033  RH  082%=      5-min Rain = 0
KOD1 170459Z 34005KT 06/03 A3015 RMK A01 T00620033  RH  082%=      5-min Rain = 0

Page generated in 0.0648 seconds.